Observation data for New Home on 09/29/2020      Previous  Date  Next       Current Mesonet Observations  Soil Data  Daily Summary Page  Observations in Plain Language
KNH1 290500Z 32003KT 10/M06 A3036 RMK A01 T00981056  RH  033%=      5-min Rain = 0
KNH1 290501Z 32003KT 10/M06 A3036 RMK A01 T00981057  RH  033%=      5-min Rain = 0
KNH1 290502Z 31003KT 10/M06 A3036 RMK A01 T00971057  RH  033%=      5-min Rain = 0
KNH1 290503Z 32003KT 10/M06 A3036 RMK A01 T00981057  RH  033%=      5-min Rain = 0
KNH1 290504Z 32003KT 10/M06 A3036 RMK A01 T00981057  RH  033%=      5-min Rain = 0
KNH1 290505Z 32003KT 10/M06 A3036 RMK A01 T00981057  RH  033%=      5-min Rain = 0
KNH1 290506Z 32003KT 10/M06 A3036 RMK A01 T00981057  RH  033%=      5-min Rain = 0
KNH1 290507Z 32003KT 10/M06 A3036 RMK A01 T00981057  RH  033%=      5-min Rain = 0
KNH1 290508Z 32003KT 10/M06 A3036 RMK A01 T00981057  RH  033%=      5-min Rain = 0
KNH1 290509Z 31003KT 10/M06 A3036 RMK A01 T00981056  RH  033%=      5-min Rain = 0
KNH1 290510Z 31003KT 10/M06 A3036 RMK A01 T00981056  RH  033%=      5-min Rain = 0
KNH1 290511Z 30003KT 10/M06 A3036 RMK A01 T00981056  RH  033%=      5-min Rain = 0
KNH1 290512Z 31003KT 10/M06 A3036 RMK A01 T00971055  RH  034%=      5-min Rain = 0
KNH1 290513Z 30003KT 10/M06 A3036 RMK A01 T00951055  RH  034%=      5-min Rain = 0
KNH1 290514Z 30002KT 09/M05 A3036 RMK A01 T00931054  RH  035%=      5-min Rain = 0
KNH1 290515Z 30002KT 09/M05 A3036 RMK A01 T00921053  RH  036%=      5-min Rain = 0
KNH1 290516Z 30003KT 09/M05 A3036 RMK A01 T00901053  RH  036%=      5-min Rain = 0
KNH1 290517Z 30003KT 09/M05 A3036 RMK A01 T00901054  RH  036%=      5-min Rain = 0
KNH1 290518Z 30003KT 09/M06 A3036 RMK A01 T00891055  RH  036%=      5-min Rain = 0
KNH1 290519Z 29003KT 09/M05 A3036 RMK A01 T00871054  RH  036%=      5-min Rain = 0
KNH1 290520Z 29003KT 09/M05 A3036 RMK A01 T00871054  RH  036%=      5-min Rain = 0
KNH1 290521Z 29003KT 09/M06 A3036 RMK A01 T00861055  RH  037%=      5-min Rain = 0
KNH1 290522Z 29003KT 09/M05 A3036 RMK A01 T00851054  RH  037%=      5-min Rain = 0
KNH1 290523Z 30003KT 08/M05 A3036 RMK A01 T00841053  RH  037%=      5-min Rain = 0
KNH1 290524Z 30003KT 08/M05 A3036 RMK A01 T00841053  RH  038%=      5-min Rain = 0
KNH1 290525Z 30003KT 08/M05 A3036 RMK A01 T00831052  RH  038%=      5-min Rain = 0
KNH1 290526Z 30003KT 08/M05 A3036 RMK A01 T00821052  RH  038%=      5-min Rain = 0
KNH1 290527Z 30003KT 08/M05 A3036 RMK A01 T00811051  RH  039%=      5-min Rain = 0
KNH1 290528Z 30004KT 08/M05 A3036 RMK A01 T00801049  RH  040%=      5-min Rain = 0
KNH1 290529Z 30004KT 08/M05 A3036 RMK A01 T00791047  RH  040%=      5-min Rain = 0
KNH1 290530Z 30003KT 08/M05 A3036 RMK A01 T00781046  RH  041%=      5-min Rain = 0
KNH1 290531Z 30003KT 08/M05 A3036 RMK A01 T00781047  RH  041%=      5-min Rain = 0
KNH1 290532Z 30004KT 08/M05 A3036 RMK A01 T00771047  RH  041%=      5-min Rain = 0
KNH1 290533Z 30004KT 08/M05 A3036 RMK A01 T00781050  RH  040%=      5-min Rain = 0
KNH1 290534Z 30003KT 08/M05 A3036 RMK A01 T00791050  RH  039%=      5-min Rain = 0
KNH1 290535Z 31003KT 08/M05 A3036 RMK A01 T00811050  RH  039%=      5-min Rain = 0
KNH1 290536Z 31003KT 08/M05 A3036 RMK A01 T00811049  RH  039%=      5-min Rain = 0
KNH1 290537Z 30003KT 08/M05 A3036 RMK A01 T00811050  RH  039%=      5-min Rain = 0
KNH1 290538Z 31004KT 08/M05 A3036 RMK A01 T00811050  RH  039%=      5-min Rain = 0
KNH1 290539Z 30004KT 08/M05 A3036 RMK A01 T00821051  RH  038%=      5-min Rain = 0
KNH1 290540Z 30004KT 08/M05 A3036 RMK A01 T00831052  RH  038%=      5-min Rain = 0
KNH1 290541Z 30004KT 09/M05 A3036 RMK A01 T00851053  RH  037%=      5-min Rain = 0
KNH1 290542Z 30003KT 09/M05 A3036 RMK A01 T00861053  RH  037%=      5-min Rain = 0
KNH1 290543Z 30004KT 09/M05 A3036 RMK A01 T00881051  RH  037%=      5-min Rain = 0
KNH1 290544Z 30004KT 09/M05 A3036 RMK A01 T00881051  RH  037%=      5-min Rain = 0
KNH1 290545Z 30004KT 09/M05 A3036 RMK A01 T00891050  RH  037%=      5-min Rain = 0
KNH1 290546Z 30004KT 09/M05 A3036 RMK A01 T00901050  RH  037%=      5-min Rain = 0
KNH1 290547Z 30003KT 09/M05 A3036 RMK A01 T00901051  RH  037%=      5-min Rain = 0
KNH1 290548Z 30004KT 09/M05 A3036 RMK A01 T00911052  RH  036%=      5-min Rain = 0
KNH1 290549Z 30004KT 09/M05 A3036 RMK A01 T00911052  RH  036%=      5-min Rain = 0
KNH1 290550Z 30003KT 09/M05 A3036 RMK A01 T00911051  RH  036%=      5-min Rain = 0
KNH1 290551Z 30003KT 09/M05 A3036 RMK A01 T00901051  RH  036%=      5-min Rain = 0
KNH1 290552Z 31004KT 09/M05 A3036 RMK A01 T00901051  RH  036%=      5-min Rain = 0
KNH1 290553Z 30004KT 09/M05 A3036 RMK A01 T00901051  RH  037%=      5-min Rain = 0
KNH1 290554Z 30003KT 09/M05 A3036 RMK A01 T00891051  RH  037%=      5-min Rain = 0
KNH1 290555Z 30003KT 09/M05 A3036 RMK A01 T00891051  RH  037%=      5-min Rain = 0
KNH1 290556Z 30003KT 09/M05 A3036 RMK A01 T00881050  RH  037%=      5-min Rain = 0
KNH1 290557Z 30004KT 09/M05 A3036 RMK A01 T00871050  RH  038%=      5-min Rain = 0
KNH1 290558Z 31004KT 09/M05 A3036 RMK A01 T00861049  RH  038%=      5-min Rain = 0
KNH1 290559Z 31003KT 09/M05 A3036 RMK A01 T00861050  RH  038%=      5-min Rain = 0
KNH1 290600Z 30003KT 09/M05 A3036 RMK A01 T00861050  RH  038%=      5-min Rain = 0
KNH1 290601Z 31003KT 09/M05 A3036 RMK A01 T00861049  RH  038%=      5-min Rain = 0
KNH1 290602Z 31003KT 09/M05 A3036 RMK A01 T00851049  RH  038%=      5-min Rain = 0
KNH1 290603Z 31004KT 09/M05 A3036 RMK A01 T00861049  RH  038%=      5-min Rain = 0
KNH1 290604Z 31004KT 09/M05 A3036 RMK A01 T00851049  RH  038%=      5-min Rain = 0
KNH1 290605Z 30004KT 09/M05 A3036 RMK A01 T00851050  RH  038%=      5-min Rain = 0
KNH1 290606Z 31003KT 09/M05 A3036 RMK A01 T00851050  RH  038%=      5-min Rain = 0
KNH1 290607Z 31003KT 09/M05 A3036 RMK A01 T00851049  RH  038%=      5-min Rain = 0
KNH1 290608Z 31003KT 08/M05 A3036 RMK A01 T00841050  RH  038%=      5-min Rain = 0
KNH1 290609Z 30003KT 08/M05 A3036 RMK A01 T00831050  RH  038%=      5-min Rain = 0
KNH1 290610Z 31003KT 08/M05 A3036 RMK A01 T00831050  RH  038%=      5-min Rain = 0
KNH1 290611Z 31003KT 08/M05 A3036 RMK A01 T00821050  RH  039%=      5-min Rain = 0
KNH1 290612Z 31003KT 08/M05 A3036 RMK A01 T00821049  RH  039%=      5-min Rain = 0
KNH1 290613Z 30003KT 08/M05 A3036 RMK A01 T00811049  RH  039%=      5-min Rain = 0
KNH1 290614Z 30003KT 08/M05 A3036 RMK A01 T00801049  RH  040%=      5-min Rain = 0
KNH1 290615Z 31003KT 08/M05 A3036 RMK A01 T00791048  RH  040%=      5-min Rain = 0
KNH1 290616Z 30003KT 08/M05 A3036 RMK A01 T00791048  RH  040%=      5-min Rain = 0
KNH1 290617Z 30003KT 08/M05 A3036 RMK A01 T00781047  RH  041%=      5-min Rain = 0
KNH1 290618Z 30003KT 08/M05 A3036 RMK A01 T00781047  RH  041%=      5-min Rain = 0
KNH1 290619Z 30003KT 08/M05 A3036 RMK A01 T00771047  RH  041%=      5-min Rain = 0
KNH1 290620Z 30003KT 08/M05 A3036 RMK A01 T00761047  RH  041%=      5-min Rain = 0
KNH1 290621Z 30003KT 08/M05 A3036 RMK A01 T00761048  RH  041%=      5-min Rain = 0
KNH1 290622Z 31003KT 08/M05 A3036 RMK A01 T00761049  RH  041%=      5-min Rain = 0
KNH1 290623Z 31003KT 08/M05 A3036 RMK A01 T00761049  RH  041%=      5-min Rain = 0
KNH1 290624Z 31003KT 08/M05 A3036 RMK A01 T00761049  RH  041%=      5-min Rain = 0
KNH1 290625Z 31004KT 08/M05 A3036 RMK A01 T00761049  RH  041%=      5-min Rain = 0
KNH1 290626Z 31003KT 08/M05 A3036 RMK A01 T00771048  RH  041%=      5-min Rain = 0
KNH1 290627Z 31004KT 08/M05 A3036 RMK A01 T00771049  RH  041%=      5-min Rain = 0
KNH1 290628Z 30003KT 08/M05 A3036 RMK A01 T00771049  RH  040%=      5-min Rain = 0
KNH1 290629Z 30003KT 08/M05 A3036 RMK A01 T00771049  RH  040%=      5-min Rain = 0
KNH1 290630Z 30003KT 08/M05 A3036 RMK A01 T00761049  RH  041%=      5-min Rain = 0
KNH1 290631Z 30003KT 08/M05 A3036 RMK A01 T00761049  RH  041%=      5-min Rain = 0
KNH1 290632Z 30003KT 08/M05 A3036 RMK A01 T00751049  RH  041%=      5-min Rain = 0
KNH1 290633Z 31004KT 08/M05 A3036 RMK A01 T00751049  RH  041%=      5-min Rain = 0
KNH1 290634Z 31003KT 07/M05 A3036 RMK A01 T00741049  RH  041%=      5-min Rain = 0
KNH1 290635Z 31003KT 07/M05 A3036 RMK A01 T00741050  RH  041%=      5-min Rain = 0
KNH1 290636Z 31004KT 08/M05 A3036 RMK A01 T00751049  RH  041%=      5-min Rain = 0
KNH1 290637Z 32003KT 08/M05 A3036 RMK A01 T00751049  RH  041%=      5-min Rain = 0
KNH1 290638Z 31003KT 08/M05 A3036 RMK A01 T00761049  RH  041%=      5-min Rain = 0
KNH1 290639Z 32004KT 08/M05 A3036 RMK A01 T00761048  RH  041%=      5-min Rain = 0
KNH1 290640Z 31002KT 08/M05 A3036 RMK A01 T00761048  RH  041%=      5-min Rain = 0
KNH1 290641Z 31003KT 08/M05 A3036 RMK A01 T00751049  RH  041%=      5-min Rain = 0
KNH1 290642Z 32003KT 08/M05 A3036 RMK A01 T00751049  RH  041%=      5-min Rain = 0
KNH1 290643Z 32003KT 08/M05 A3036 RMK A01 T00751048  RH  041%=      5-min Rain = 0
KNH1 290644Z 31003KT 07/M05 A3036 RMK A01 T00741048  RH  042%=      5-min Rain = 0
KNH1 290645Z 31003KT 07/M05 A3036 RMK A01 T00741048  RH  042%=      5-min Rain = 0
KNH1 290646Z 31003KT 07/M05 A3036 RMK A01 T00741048  RH  042%=      5-min Rain = 0
KNH1 290647Z 30003KT 07/M05 A3036 RMK A01 T00741049  RH  042%=      5-min Rain = 0
KNH1 290648Z 29003KT 07/M05 A3036 RMK A01 T00731048  RH  042%=      5-min Rain = 0
KNH1 290649Z 30003KT 07/M05 A3036 RMK A01 T00731048  RH  042%=      5-min Rain = 0
KNH1 290650Z 32003KT 07/M05 A3036 RMK A01 T00711049  RH  042%=      5-min Rain = 0
KNH1 290651Z 33002KT 07/M05 A3036 RMK A01 T00711049  RH  042%=      5-min Rain = 0
KNH1 290652Z 32002KT 07/M05 A3036 RMK A01 T00711050  RH  042%=      5-min Rain = 0
KNH1 290653Z 32002KT 07/M05 A3036 RMK A01 T00711050  RH  042%=      5-min Rain = 0
KNH1 290654Z 32003KT 07/M05 A3036 RMK A01 T00721049  RH  042%=      5-min Rain = 0
KNH1 290655Z 31003KT 07/M05 A3036 RMK A01 T00731049  RH  041%=      5-min Rain = 0
KNH1 290656Z 32003KT 07/M05 A3035 RMK A01 T00741049  RH  041%=      5-min Rain = 0
KNH1 290657Z 32003KT 07/M05 A3035 RMK A01 T00741049  RH  041%=      5-min Rain = 0
KNH1 290658Z 32002KT 07/M05 A3035 RMK A01 T00741049  RH  041%=      5-min Rain = 0
KNH1 290659Z 32003KT 07/M05 A3036 RMK A01 T00741049  RH  041%=      5-min Rain = 0
KNH1 290700Z 32003KT 07/M05 A3036 RMK A01 T00741049  RH  041%=      5-min Rain = 0
KNH1 290701Z 32003KT 07/M05 A3036 RMK A01 T00741049  RH  041%=      5-min Rain = 0
KNH1 290702Z 32003KT 07/M05 A3036 RMK A01 T00741048  RH  041%=      5-min Rain = 0
KNH1 290703Z 32003KT 07/M05 A3036 RMK A01 T00741048  RH  041%=      5-min Rain = 0
KNH1 290704Z 32002KT 07/M05 A3036 RMK A01 T00741048  RH  042%=      5-min Rain = 0
KNH1 290705Z 31003KT 07/M05 A3036 RMK A01 T00731048  RH  042%=      5-min Rain = 0
KNH1 290706Z 31003KT 07/M05 A3035 RMK A01 T00721048  RH  042%=      5-min Rain = 0
KNH1 290707Z 31003KT 07/M05 A3035 RMK A01 T00721046  RH  043%=      5-min Rain = 0
KNH1 290708Z 31004KT 07/M05 A3035 RMK A01 T00711046  RH  043%=      5-min Rain = 0
KNH1 290709Z 31003KT 07/M05 A3035 RMK A01 T00711046  RH  043%=      5-min Rain = 0
KNH1 290710Z 31003KT 07/M05 A3035 RMK A01 T00701047  RH  043%=      5-min Rain = 0
KNH1 290711Z 31003KT 07/M05 A3035 RMK A01 T00701047  RH  043%=      5-min Rain = 0
KNH1 290712Z 30003KT 07/M05 A3035 RMK A01 T00701047  RH  043%=      5-min Rain = 0
KNH1 290713Z 31003KT 07/M05 A3035 RMK A01 T00691046  RH  044%=      5-min Rain = 0
KNH1 290714Z 31003KT 07/M05 A3035 RMK A01 T00681046  RH  044%=      5-min Rain = 0
KNH1 290715Z 31003KT 07/M05 A3035 RMK A01 T00671046  RH  044%=      5-min Rain = 0
KNH1 290716Z 31003KT 07/M05 A3035 RMK A01 T00671046  RH  044%=      5-min Rain = 0
KNH1 290717Z 31003KT 07/M05 A3035 RMK A01 T00671046  RH  044%=      5-min Rain = 0
KNH1 290718Z 31003KT 07/M05 A3035 RMK A01 T00671048  RH  044%=      5-min Rain = 0
KNH1 290719Z 33002KT 07/M05 A3035 RMK A01 T00681048  RH  043%=      5-min Rain = 0
KNH1 290720Z 32002KT 07/M05 A3035 RMK A01 T00691048  RH  043%=      5-min Rain = 0
KNH1 290721Z 32003KT 07/M05 A3035 RMK A01 T00691048  RH  043%=      5-min Rain = 0
KNH1 290722Z 32002KT 07/M05 A3035 RMK A01 T00701049  RH  043%=      5-min Rain = 0
KNH1 290723Z 32003KT 07/M05 A3035 RMK A01 T00701049  RH  043%=      5-min Rain = 0
KNH1 290724Z 32003KT 07/M05 A3035 RMK A01 T00701049  RH  042%=      5-min Rain = 0
KNH1 290725Z 32003KT 07/M05 A3035 RMK A01 T00701050  RH  042%=      5-min Rain = 0
KNH1 290726Z 31003KT 07/M05 A3035 RMK A01 T00711051  RH  042%=      5-min Rain = 0
KNH1 290727Z 32003KT 07/M05 A3035 RMK A01 T00711051  RH  041%=      5-min Rain = 0
KNH1 290728Z 32002KT 07/M05 A3035 RMK A01 T00721051  RH  041%=      5-min Rain = 0
KNH1 290729Z 32003KT 07/M05 A3035 RMK A01 T00711051  RH  041%=      5-min Rain = 0
KNH1 290730Z 32003KT 07/M05 A3035 RMK A01 T00711051  RH  042%=      5-min Rain = 0
KNH1 290731Z 32003KT 07/M05 A3035 RMK A01 T00711051  RH  042%=      5-min Rain = 0
KNH1 290732Z 33004KT 07/M05 A3035 RMK A01 T00711052  RH  041%=      5-min Rain = 0
KNH1 290733Z 33004KT 07/M05 A3035 RMK A01 T00711053  RH  041%=      5-min Rain = 0
KNH1 290734Z 33004KT 07/M05 A3035 RMK A01 T00721052  RH  041%=      5-min Rain = 0
KNH1 290735Z 32005KT 07/M05 A3035 RMK A01 T00721052  RH  041%=      5-min Rain = 0
KNH1 290736Z 32005KT 07/M05 A3035 RMK A01 T00721052  RH  041%=      5-min Rain = 0
KNH1 290737Z 32004KT 07/M05 A3035 RMK A01 T00721052  RH  041%=      5-min Rain = 0
KNH1 290738Z 33005KT 07/M05 A3035 RMK A01 T00721050  RH  041%=      5-min Rain = 0
KNH1 290739Z 32004KT 07/M05 A3035 RMK A01 T00711049  RH  042%=      5-min Rain = 0
KNH1 290740Z 33004KT 07/M05 A3035 RMK A01 T00701049  RH  042%=      5-min Rain = 0
KNH1 290741Z 33005KT 07/M05 A3035 RMK A01 T00701049  RH  042%=      5-min Rain = 0
KNH1 290742Z 32004KT 07/M05 A3035 RMK A01 T00701050  RH  042%=      5-min Rain = 0
KNH1 290743Z 32004KT 07/M05 A3035 RMK A01 T00721051  RH  041%=      5-min Rain = 0
KNH1 290744Z 32003KT 07/M05 A3035 RMK A01 T00741052  RH  040%=      5-min Rain = 0
KNH1 290745Z 32003KT 08/M05 A3035 RMK A01 T00761052  RH  040%=      5-min Rain = 0
KNH1 290746Z 32002KT 08/M05 A3035 RMK A01 T00771052  RH  040%=      5-min Rain = 0
KNH1 290747Z 32003KT 08/M05 A3035 RMK A01 T00771052  RH  040%=      5-min Rain = 0
KNH1 290748Z 32003KT 08/M05 A3035 RMK A01 T00771051  RH  040%=      5-min Rain = 0
KNH1 290749Z 33003KT 08/M05 A3035 RMK A01 T00771052  RH  040%=      5-min Rain = 0
KNH1 290750Z 32003KT 08/M05 A3035 RMK A01 T00761052  RH  040%=      5-min Rain = 0
KNH1 290751Z 32003KT 08/M05 A3035 RMK A01 T00771052  RH  040%=      5-min Rain = 0
KNH1 290752Z 32003KT 08/M05 A3035 RMK A01 T00761052  RH  040%=      5-min Rain = 0
KNH1 290753Z 31003KT 08/M05 A3035 RMK A01 T00761052  RH  040%=      5-min Rain = 0
KNH1 290754Z 32003KT 08/M05 A3035 RMK A01 T00751052  RH  040%=      5-min Rain = 0
KNH1 290755Z 32003KT 08/M05 A3035 RMK A01 T00751052  RH  040%=      5-min Rain = 0
KNH1 290756Z 32003KT 07/M05 A3035 RMK A01 T00741052  RH  040%=      5-min Rain = 0
KNH1 290757Z 32002KT 07/M05 A3035 RMK A01 T00731052  RH  041%=      5-min Rain = 0
KNH1 290758Z 30003KT 07/M05 A3035 RMK A01 T00711051  RH  042%=      5-min Rain = 0
KNH1 290759Z 30003KT 07/M05 A3035 RMK A01 T00701049  RH  043%=      5-min Rain = 0
KNH1 290800Z 29002KT 07/M05 A3035 RMK A01 T00671047  RH  044%=      5-min Rain = 0
KNH1 290801Z 30002KT 07/M05 A3035 RMK A01 T00651047  RH  045%=      5-min Rain = 0
KNH1 290802Z 31002KT 06/M05 A3035 RMK A01 T00631045  RH  046%=      5-min Rain = 0
KNH1 290803Z 31003KT 06/M05 A3035 RMK A01 T00611045  RH  046%=      5-min Rain = 0
KNH1 290804Z 31003KT 06/M05 A3035 RMK A01 T00601047  RH  046%=      5-min Rain = 0
KNH1 290805Z 32003KT 06/M05 A3035 RMK A01 T00611049  RH  045%=      5-min Rain = 0
KNH1 290806Z 32003KT 06/M05 A3035 RMK A01 T00611049  RH  045%=      5-min Rain = 0
KNH1 290807Z 32002KT 06/M05 A3035 RMK A01 T00611050  RH  045%=      5-min Rain = 0
KNH1 290808Z 32002KT 06/M05 A3035 RMK A01 T00621050  RH  045%=      5-min Rain = 0
KNH1 290809Z 32002KT 06/M05 A3035 RMK A01 T00621050  RH  044%=      5-min Rain = 0
KNH1 290810Z 32003KT 06/M05 A3035 RMK A01 T00631050  RH  044%=      5-min Rain = 0
KNH1 290811Z 31003KT 06/M05 A3035 RMK A01 T00631050  RH  044%=      5-min Rain = 0
KNH1 290812Z 31003KT 06/M05 A3035 RMK A01 T00641050  RH  044%=      5-min Rain = 0
KNH1 290813Z 31003KT 06/M05 A3035 RMK A01 T00641048  RH  045%=      5-min Rain = 0
KNH1 290814Z 30003KT 06/M05 A3035 RMK A01 T00631048  RH  045%=      5-min Rain = 0
KNH1 290815Z 30003KT 06/M05 A3035 RMK A01 T00631047  RH  045%=      5-min Rain = 0
KNH1 290816Z 31003KT 06/M05 A3035 RMK A01 T00611047  RH  046%=      5-min Rain = 0
KNH1 290817Z 30003KT 06/M05 A3035 RMK A01 T00601047  RH  046%=      5-min Rain = 0
KNH1 290818Z 31003KT 06/M05 A3035 RMK A01 T00581047  RH  047%=      5-min Rain = 0
KNH1 290819Z 30003KT 06/M05 A3035 RMK A01 T00581046  RH  047%=      5-min Rain = 0
KNH1 290820Z 31003KT 06/M05 A3035 RMK A01 T00581047  RH  047%=      5-min Rain = 0
KNH1 290821Z 31003KT 06/M05 A3035 RMK A01 T00581048  RH  046%=      5-min Rain = 0
KNH1 290822Z 30003KT 06/M05 A3035 RMK A01 T00601049  RH  046%=      5-min Rain = 0
KNH1 290823Z 31003KT 06/M05 A3035 RMK A01 T00601049  RH  046%=      5-min Rain = 0
KNH1 290824Z 31003KT 06/M05 A3035 RMK A01 T00611048  RH  046%=      5-min Rain = 0
KNH1 290825Z 31003KT 06/M05 A3035 RMK A01 T00611048  RH  046%=      5-min Rain = 0
KNH1 290826Z 31003KT 06/M05 A3035 RMK A01 T00601048  RH  046%=      5-min Rain = 0
KNH1 290827Z 32003KT 06/M05 A3035 RMK A01 T00601048  RH  046%=      5-min Rain = 0
KNH1 290828Z 31002KT 06/M05 A3035 RMK A01 T00611049  RH  045%=      5-min Rain = 0
KNH1 290829Z 32002KT 06/M05 A3035 RMK A01 T00611049  RH  045%=      5-min Rain = 0
KNH1 290830Z 32003KT 06/M05 A3035 RMK A01 T00611049  RH  045%=      5-min Rain = 0
KNH1 290831Z 32003KT 06/M05 A3035 RMK A01 T00611049  RH  045%=      5-min Rain = 0
KNH1 290832Z 31003KT 06/M05 A3035 RMK A01 T00611049  RH  045%=      5-min Rain = 0
KNH1 290833Z 31004KT 06/M05 A3035 RMK A01 T00611048  RH  045%=      5-min Rain = 0
KNH1 290834Z 31003KT 06/M05 A3035 RMK A01 T00601048  RH  046%=      5-min Rain = 0
KNH1 290835Z 31003KT 06/M05 A3035 RMK A01 T00581047  RH  047%=      5-min Rain = 0
KNH1 290836Z 31003KT 06/M05 A3034 RMK A01 T00571047  RH  047%=      5-min Rain = 0
KNH1 290837Z 31003KT 06/M05 A3034 RMK A01 T00561048  RH  047%=      5-min Rain = 0
KNH1 290838Z 31003KT 06/M05 A3034 RMK A01 T00561049  RH  047%=      5-min Rain = 0
KNH1 290839Z 30003KT 06/M05 A3034 RMK A01 T00561049  RH  047%=      5-min Rain = 0
KNH1 290840Z 30004KT 06/M05 A3034 RMK A01 T00561049  RH  047%=      5-min Rain = 0
KNH1 290841Z 29003KT 06/M05 A3034 RMK A01 T00551048  RH  047%=      5-min Rain = 0
KNH1 290842Z 30003KT 06/M05 A3034 RMK A01 T00551049  RH  047%=      5-min Rain = 0
KNH1 290843Z 29003KT 05/M05 A3034 RMK A01 T00541049  RH  047%=      5-min Rain = 0
KNH1 290844Z 28003KT 05/M05 A3034 RMK A01 T00541049  RH  048%=      5-min Rain = 0
KNH1 290845Z 28004KT 05/M05 A3034 RMK A01 T00531050  RH  047%=      5-min Rain = 0
KNH1 290846Z 29003KT 05/M05 A3034 RMK A01 T00521052  RH  047%=      5-min Rain = 0
KNH1 290847Z 29003KT 05/M05 A3034 RMK A01 T00511051  RH  047%=      5-min Rain = 0
KNH1 290848Z 30003KT 05/M05 A3034 RMK A01 T00511051  RH  048%=      5-min Rain = 0
KNH1 290849Z 30003KT 05/M05 A3034 RMK A01 T00501050  RH  048%=      5-min Rain = 0
KNH1 290850Z 30003KT 05/M05 A3034 RMK A01 T00501049  RH  049%=      5-min Rain = 0
KNH1 290851Z 31003KT 05/M05 A3034 RMK A01 T00501049  RH  049%=      5-min Rain = 0
KNH1 290852Z 32003KT 05/M05 A3034 RMK A01 T00501050  RH  049%=      5-min Rain = 0
KNH1 290853Z 32003KT 05/M05 A3034 RMK A01 T00521050  RH  048%=      5-min Rain = 0
KNH1 290854Z 32003KT 05/M05 A3034 RMK A01 T00541050  RH  047%=      5-min Rain = 0
KNH1 290855Z 32003KT 06/M05 A3034 RMK A01 T00561050  RH  046%=      5-min Rain = 0
KNH1 290856Z 32002KT 06/M05 A3034 RMK A01 T00571051  RH  046%=      5-min Rain = 0
KNH1 290857Z 32003KT 06/M05 A3034 RMK A01 T00581051  RH  045%=      5-min Rain = 0
KNH1 290858Z 32004KT 06/M05 A3034 RMK A01 T00591051  RH  045%=      5-min Rain = 0
KNH1 290859Z 33004KT 06/M05 A3034 RMK A01 T00591052  RH  045%=      5-min Rain = 0
KNH1 290900Z 32003KT 06/M05 A3034 RMK A01 T00601052  RH  045%=      5-min Rain = 0
KNH1 290901Z 32003KT 06/M05 A3034 RMK A01 T00601052  RH  044%=      5-min Rain = 0
KNH1 290902Z 32003KT 06/M05 A3034 RMK A01 T00611052  RH  044%=      5-min Rain = 0
KNH1 290903Z 32003KT 06/M05 A3034 RMK A01 T00611051  RH  044%=      5-min Rain = 0
KNH1 290904Z 32003KT 06/M05 A3034 RMK A01 T00601051  RH  045%=      5-min Rain = 0
KNH1 290905Z 31003KT 06/M05 A3034 RMK A01 T00601051  RH  045%=      5-min Rain = 0
KNH1 290906Z 31003KT 06/M05 A3034 RMK A01 T00591050  RH  046%=      5-min Rain = 0
KNH1 290907Z 31004KT 06/M05 A3034 RMK A01 T00581049  RH  046%=      5-min Rain = 0
KNH1 290908Z 31004KT 06/M05 A3034 RMK A01 T00571050  RH  046%=      5-min Rain = 0
KNH1 290909Z 30003KT 06/M05 A3034 RMK A01 T00571050  RH  046%=      5-min Rain = 0
KNH1 290910Z 30004KT 06/M05 A3034 RMK A01 T00571049  RH  046%=      5-min Rain = 0
KNH1 290911Z 30003KT 06/M05 A3034 RMK A01 T00561048  RH  047%=      5-min Rain = 0
KNH1 290912Z 30003KT 06/M05 A3034 RMK A01 T00551047  RH  048%=      5-min Rain = 0
KNH1 290913Z 30003KT 05/M05 A3034 RMK A01 T00531047  RH  048%=      5-min Rain = 0
KNH1 290914Z 30003KT 05/M05 A3034 RMK A01 T00531048  RH  048%=      5-min Rain = 0
KNH1 290915Z 30003KT 05/M05 A3034 RMK A01 T00521048  RH  048%=      5-min Rain = 0
KNH1 290916Z 30004KT 05/M05 A3034 RMK A01 T00511048  RH  048%=      5-min Rain = 0
KNH1 290917Z 30004KT 05/M05 A3033 RMK A01 T00521048  RH  048%=      5-min Rain = 0
KNH1 290918Z 30003KT 05/M05 A3033 RMK A01 T00521049  RH  048%=      5-min Rain = 0
KNH1 290919Z 30004KT 05/M05 A3033 RMK A01 T00521049  RH  048%=      5-min Rain = 0
KNH1 290920Z 30004KT 05/M05 A3033 RMK A01 T00521048  RH  049%=      5-min Rain = 0
KNH1 290921Z 30004KT 05/M05 A3033 RMK A01 T00521047  RH  049%=      5-min Rain = 0
KNH1 290922Z 30004KT 05/M05 A3033 RMK A01 T00511048  RH  049%=      5-min Rain = 0
KNH1 290923Z 30004KT 05/M05 A3033 RMK A01 T00511048  RH  049%=      5-min Rain = 0
KNH1 290924Z 31004KT 05/M05 A3033 RMK A01 T00501048  RH  049%=      5-min Rain = 0
KNH1 290925Z 31003KT 05/M05 A3033 RMK A01 T00511050  RH  048%=      5-min Rain = 0
KNH1 290926Z 31004KT 05/M05 A3033 RMK A01 T00521050  RH  048%=      5-min Rain = 0
KNH1 290927Z 30004KT 05/M05 A3033 RMK A01 T00521050  RH  048%=      5-min Rain = 0
KNH1 290928Z 31003KT 05/M05 A3033 RMK A01 T00521049  RH  048%=      5-min Rain = 0
KNH1 290929Z 31003KT 05/M05 A3033 RMK A01 T00521050  RH  048%=      5-min Rain = 0
KNH1 290930Z 31003KT 05/M05 A3033 RMK A01 T00521051  RH  047%=      5-min Rain = 0
KNH1 290931Z 31003KT 05/M05 A3033 RMK A01 T00521050  RH  048%=      5-min Rain = 0
KNH1 290932Z 30003KT 05/M05 A3033 RMK A01 T00521049  RH  048%=      5-min Rain = 0
KNH1 290933Z 30004KT 05/M05 A3033 RMK A01 T00511049  RH  048%=      5-min Rain = 0
KNH1 290934Z 30004KT 05/M05 A3034 RMK A01 T00501049  RH  048%=      5-min Rain = 0
KNH1 290935Z 30004KT 05/M05 A3034 RMK A01 T00501049  RH  049%=      5-min Rain = 0
KNH1 290936Z 30004KT 05/M05 A3034 RMK A01 T00491049  RH  049%=      5-min Rain = 0
KNH1 290937Z 30004KT 05/M05 A3034 RMK A01 T00491050  RH  049%=      5-min Rain = 0
KNH1 290938Z 31004KT 05/M05 A3034 RMK A01 T00491050  RH  049%=      5-min Rain = 0
KNH1 290939Z 31003KT 05/M05 A3034 RMK A01 T00491051  RH  049%=      5-min Rain = 0
KNH1 290940Z 31003KT 05/M05 A3034 RMK A01 T00491051  RH  048%=      5-min Rain = 0
KNH1 290941Z 33002KT 05/M05 A3034 RMK A01 T00501051  RH  048%=      5-min Rain = 0
KNH1 290942Z 32002KT 05/M05 A3034 RMK A01 T00501051  RH  048%=      5-min Rain = 0
KNH1 290943Z 32003KT 05/M05 A3034 RMK A01 T00511051  RH  048%=      5-min Rain = 0
KNH1 290944Z 33003KT 05/M05 A3034 RMK A01 T00521050  RH  048%=      5-min Rain = 0
KNH1 290945Z 33004KT 05/M05 A3034 RMK A01 T00511051  RH  048%=      5-min Rain = 0
KNH1 290946Z 33004KT 05/M05 A3034 RMK A01 T00521051  RH  048%=      5-min Rain = 0
KNH1 290947Z 33004KT 05/M05 A3034 RMK A01 T00521051  RH  048%=      5-min Rain = 0
KNH1 290948Z 33004KT 05/M05 A3034 RMK A01 T00511051  RH  048%=      5-min Rain = 0
KNH1 290949Z 32003KT 05/M05 A3034 RMK A01 T00521050  RH  048%=      5-min Rain = 0
KNH1 290950Z 33003KT 05/M05 A3034 RMK A01 T00521050  RH  048%=      5-min Rain = 0
KNH1 290951Z 31002KT 05/M05 A3034 RMK A01 T00531050  RH  047%=      5-min Rain = 0
KNH1 290952Z 32003KT 05/M05 A3034 RMK A01 T00531050  RH  047%=      5-min Rain = 0
KNH1 290953Z 32003KT 05/M05 A3034 RMK A01 T00541050  RH  047%=      5-min Rain = 0
KNH1 290954Z 31003KT 06/M05 A3034 RMK A01 T00551050  RH  047%=      5-min Rain = 0
KNH1 290955Z 31004KT 06/M05 A3034 RMK A01 T00551049  RH  047%=      5-min Rain = 0
KNH1 290956Z 31003KT 05/M05 A3034 RMK A01 T00541049  RH  047%=      5-min Rain = 0
KNH1 290957Z 31004KT 05/M05 A3034 RMK A01 T00531048  RH  048%=      5-min Rain = 0
KNH1 290958Z 32004KT 05/M05 A3034 RMK A01 T00531050  RH  048%=      5-min Rain = 0
KNH1 290959Z 32003KT 05/M05 A3034 RMK A01 T00531050  RH  047%=      5-min Rain = 0
KNH1 291000Z 32004KT 05/M05 A3033 RMK A01 T00531052  RH  047%=      5-min Rain = 0
KNH1 291001Z 32004KT 05/M05 A3033 RMK A01 T00541052  RH  046%=      5-min Rain = 0
KNH1 291002Z 32004KT 06/M05 A3033 RMK A01 T00551052  RH  046%=      5-min Rain = 0
KNH1 291003Z 32003KT 06/M05 A3033 RMK A01 T00551052  RH  046%=      5-min Rain = 0
KNH1 291004Z 32002KT 06/M05 A3033 RMK A01 T00551053  RH  046%=      5-min Rain = 0
KNH1 291005Z 33003KT 06/M05 A3033 RMK A01 T00551052  RH  046%=      5-min Rain = 0
KNH1 291006Z 31003KT 06/M05 A3033 RMK A01 T00551052  RH  046%=      5-min Rain = 0
KNH1 291007Z 31004KT 06/M05 A3033 RMK A01 T00551052  RH  046%=      5-min Rain = 0
KNH1 291008Z 31004KT 06/M05 A3033 RMK A01 T00551051  RH  047%=      5-min Rain = 0
KNH1 291009Z 30004KT 05/M05 A3033 RMK A01 T00531050  RH  047%=      5-min Rain = 0
KNH1 291010Z 30004KT 05/M05 A3033 RMK A01 T00521050  RH  048%=      5-min Rain = 0
KNH1 291011Z 31004KT 05/M05 A3033 RMK A01 T00511049  RH  048%=      5-min Rain = 0
KNH1 291012Z 31004KT 05/M05 A3033 RMK A01 T00511051  RH  048%=      5-min Rain = 0
KNH1 291013Z 31004KT 05/M05 A3033 RMK A01 T00511051  RH  048%=      5-min Rain = 0
KNH1 291014Z 31004KT 05/M05 A3033 RMK A01 T00511052  RH  047%=      5-min Rain = 0
KNH1 291015Z 30004KT 05/M05 A3033 RMK A01 T00511051  RH  047%=      5-min Rain = 0
KNH1 291016Z 31004KT 05/M05 A3033 RMK A01 T00511051  RH  048%=      5-min Rain = 0
KNH1 291017Z 31004KT 05/M05 A3033 RMK A01 T00511051  RH  048%=      5-min Rain = 0
KNH1 291018Z 31004KT 05/M05 A3033 RMK A01 T00511051  RH  048%=      5-min Rain = 0
KNH1 291019Z 31004KT 05/M05 A3033 RMK A01 T00511052  RH  048%=      5-min Rain = 0
KNH1 291020Z 31003KT 05/M05 A3033 RMK A01 T00511052  RH  047%=      5-min Rain = 0
KNH1 291021Z 31003KT 05/M05 A3033 RMK A01 T00511052  RH  047%=      5-min Rain = 0
KNH1 291022Z 31004KT 05/M05 A3033 RMK A01 T00511051  RH  048%=      5-min Rain = 0
KNH1 291023Z 31004KT 05/M05 A3033 RMK A01 T00501051  RH  048%=      5-min Rain = 0
KNH1 291024Z 31003KT 05/M05 A3033 RMK A01 T00501051  RH  048%=      5-min Rain = 0
KNH1 291025Z 31004KT 05/M05 A3033 RMK A01 T00501051  RH  048%=      5-min Rain = 0
KNH1 291026Z 31004KT 05/M05 A3033 RMK A01 T00501051  RH  048%=      5-min Rain = 0
KNH1 291027Z 31004KT 05/M05 A3033 RMK A01 T00501052  RH  048%=      5-min Rain = 0
KNH1 291028Z 31003KT 05/M05 A3033 RMK A01 T00501050  RH  048%=      5-min Rain = 0
KNH1 291029Z 31004KT 05/M05 A3033 RMK A01 T00501050  RH  048%=      5-min Rain = 0
KNH1 291030Z 31004KT 05/M05 A3033 RMK A01 T00491050  RH  049%=      5-min Rain = 0
KNH1 291031Z 31004KT 05/M05 A3033 RMK A01 T00491050  RH  049%=      5-min Rain = 0
KNH1 291032Z 30004KT 05/M05 A3033 RMK A01 T00481049  RH  049%=      5-min Rain = 0
KNH1 291033Z 30005KT 05/M05 A3033 RMK A01 T00481050  RH  049%=      5-min Rain = 0
KNH1 291034Z 30004KT 05/M05 A3033 RMK A01 T00481051  RH  049%=      5-min Rain = 0
KNH1 291035Z 30005KT 05/M05 A3033 RMK A01 T00481051  RH  049%=      5-min Rain = 0
KNH1 291036Z 30004KT 05/M05 A3033 RMK A01 T00481052  RH  048%=      5-min Rain = 0
KNH1 291037Z 30005KT 05/M05 A3034 RMK A01 T00491051  RH  048%=      5-min Rain = 0
KNH1 291038Z 31004KT 05/M05 A3033 RMK A01 T00491051  RH  049%=      5-min Rain = 0
KNH1 291039Z 30004KT 05/M05 A3033 RMK A01 T00491052  RH  048%=      5-min Rain = 0
KNH1 291040Z 31004KT 05/M05 A3034 RMK A01 T00511052  RH  048%=      5-min Rain = 0
KNH1 291041Z 31004KT 05/M05 A3033 RMK A01 T00511052  RH  047%=      5-min Rain = 0
KNH1 291042Z 30004KT 05/M05 A3033 RMK A01 T00511052  RH  047%=      5-min Rain = 0
KNH1 291043Z 31005KT 05/M05 A3033 RMK A01 T00511052  RH  047%=      5-min Rain = 0
KNH1 291044Z 32003KT 05/M05 A3033 RMK A01 T00511052  RH  047%=      5-min Rain = 0
KNH1 291045Z 31004KT 05/M05 A3033 RMK A01 T00521052  RH  047%=      5-min Rain = 0
KNH1 291046Z 31003KT 05/M05 A3033 RMK A01 T00521052  RH  047%=      5-min Rain = 0
KNH1 291047Z 30004KT 05/M05 A3033 RMK A01 T00521052  RH  047%=      5-min Rain = 0
KNH1 291048Z 30004KT 05/M05 A3034 RMK A01 T00521051  RH  048%=      5-min Rain = 0
KNH1 291049Z 30005KT 05/M05 A3034 RMK A01 T00511049  RH  048%=      5-min Rain = 0
KNH1 291050Z 30005KT 05/M05 A3034 RMK A01 T00491049  RH  049%=      5-min Rain = 0
KNH1 291051Z 29004KT 05/M05 A3034 RMK A01 T00491050  RH  049%=      5-min Rain = 0
KNH1 291052Z 29002KT 05/M05 A3034 RMK A01 T00481049  RH  049%=      5-min Rain = 0
KNH1 291053Z 29003KT 05/M05 A3034 RMK A01 T00471049  RH  050%=      5-min Rain = 0
KNH1 291054Z 30003KT 05/M05 A3034 RMK A01 T00471049  RH  050%=      5-min Rain = 0
KNH1 291055Z 30003KT 05/M05 A3034 RMK A01 T00461049  RH  050%=      5-min Rain = 0
KNH1 291056Z 31002KT 05/M05 A3034 RMK A01 T00461048  RH  050%=      5-min Rain = 0
KNH1 291057Z 31003KT 05/M05 A3034 RMK A01 T00451049  RH  051%=      5-min Rain = 0
KNH1 291058Z 31003KT 05/M05 A3034 RMK A01 T00461049  RH  050%=      5-min Rain = 0
KNH1 291059Z 31003KT 05/M05 A3034 RMK A01 T00471050  RH  050%=      5-min Rain = 0
KNH1 291100Z 31003KT 05/M05 A3034 RMK A01 T00481050  RH  049%=      5-min Rain = 0
KNH1 291101Z 31003KT 05/M05 A3034 RMK A01 T00481050  RH  049%=      5-min Rain = 0
KNH1 291102Z 31003KT 05/M05 A3034 RMK A01 T00491049  RH  049%=      5-min Rain = 0
KNH1 291103Z 30003KT 05/M05 A3034 RMK A01 T00491050  RH  049%=      5-min Rain = 0
KNH1 291104Z 31003KT 05/M05 A3034 RMK A01 T00491049  RH  049%=      5-min Rain = 0
KNH1 291105Z 30003KT 05/M05 A3034 RMK A01 T00491049  RH  049%=      5-min Rain = 0
KNH1 291106Z 30003KT 05/M05 A3034 RMK A01 T00481049  RH  050%=      5-min Rain = 0
KNH1 291107Z 29004KT 05/M05 A3034 RMK A01 T00471048  RH  050%=      5-min Rain = 0
KNH1 291108Z 29003KT 05/M05 A3034 RMK A01 T00471047  RH  050%=      5-min Rain = 0
KNH1 291109Z 29003KT 05/M05 A3034 RMK A01 T00471047  RH  051%=      5-min Rain = 0
KNH1 291110Z 30003KT 05/M05 A3034 RMK A01 T00461047  RH  051%=      5-min Rain = 0
KNH1 291111Z 30003KT 05/M05 A3034 RMK A01 T00461047  RH  051%=      5-min Rain = 0
KNH1 291112Z 31003KT 05/M05 A3034 RMK A01 T00461047  RH  051%=      5-min Rain = 0
KNH1 291113Z 31003KT 05/M05 A3034 RMK A01 T00461048  RH  051%=      5-min Rain = 0
KNH1 291114Z 31003KT 05/M05 A3034 RMK A01 T00461048  RH  051%=      5-min Rain = 0
KNH1 291115Z 31003KT 05/M05 A3034 RMK A01 T00461048  RH  050%=      5-min Rain = 0
KNH1 291116Z 30003KT 05/M05 A3034 RMK A01 T00481048  RH  050%=      5-min Rain = 0
KNH1 291117Z 30003KT 05/M05 A3034 RMK A01 T00491048  RH  050%=      5-min Rain = 0
KNH1 291118Z 30004KT 05/M05 A3034 RMK A01 T00491048  RH  050%=      5-min Rain = 0
KNH1 291119Z 29004KT 05/M05 A3034 RMK A01 T00491046  RH  050%=      5-min Rain = 0
KNH1 291120Z 29003KT 05/M05 A3034 RMK A01 T00471046  RH  051%=      5-min Rain = 0
KNH1 291121Z 29003KT 05/M05 A3034 RMK A01 T00461046  RH  051%=      5-min Rain = 0
KNH1 291122Z 30004KT 05/M05 A3034 RMK A01 T00461045  RH  052%=      5-min Rain = 0
KNH1 291123Z 30003KT 05/M05 A3034 RMK A01 T00461047  RH  051%=      5-min Rain = 0
KNH1 291124Z 30003KT 05/M05 A3034 RMK A01 T00461046  RH  051%=      5-min Rain = 0
KNH1 291125Z 30003KT 05/M05 A3034 RMK A01 T00461046  RH  051%=      5-min Rain = 0
KNH1 291126Z 30003KT 05/M05 A3034 RMK A01 T00461046  RH  051%=      5-min Rain = 0
KNH1 291127Z 30003KT 05/M05 A3034 RMK A01 T00461046  RH  051%=      5-min Rain = 0
KNH1 291128Z 30004KT 05/M05 A3034 RMK A01 T00461046  RH  051%=      5-min Rain = 0
KNH1 291129Z 30004KT 05/M05 A3034 RMK A01 T00451047  RH  051%=      5-min Rain = 0
KNH1 291130Z 29004KT 05/M05 A3033 RMK A01 T00451047  RH  051%=      5-min Rain = 0
KNH1 291131Z 29003KT 05/M05 A3033 RMK A01 T00461046  RH  051%=      5-min Rain = 0
KNH1 291132Z 29004KT 05/M05 A3033 RMK A01 T00461046  RH  051%=      5-min Rain = 0
KNH1 291133Z 29004KT 05/M05 A3033 RMK A01 T00461046  RH  051%=      5-min Rain = 0
KNH1 291134Z 29004KT 05/M05 A3033 RMK A01 T00451047  RH  051%=      5-min Rain = 0
KNH1 291135Z 29004KT 05/M05 A3033 RMK A01 T00461048  RH  051%=      5-min Rain = 0
KNH1 291136Z 28004KT 05/M05 A3033 RMK A01 T00461047  RH  051%=      5-min Rain = 0
KNH1 291137Z 28005KT 05/M05 A3033 RMK A01 T00461048  RH  051%=      5-min Rain = 0
KNH1 291138Z 29004KT 05/M05 A3033 RMK A01 T00461048  RH  051%=      5-min Rain = 0
KNH1 291139Z 29004KT 05/M05 A3033 RMK A01 T00461047  RH  051%=      5-min Rain = 0
KNH1 291140Z 28004KT 05/M05 A3033 RMK A01 T00461046  RH  051%=      5-min Rain = 0
KNH1 291141Z 28004KT 05/M05 A3034 RMK A01 T00461046  RH  051%=      5-min Rain = 0
KNH1 291142Z 28004KT 05/M05 A3033 RMK A01 T00461046  RH  051%=      5-min Rain = 0
KNH1 291143Z 28004KT 05/M05 A3033 RMK A01 T00461046  RH  051%=      5-min Rain = 0
KNH1 291144Z 28004KT 05/M05 A3033 RMK A01 T00461046  RH  051%=      5-min Rain = 0
KNH1 291145Z 28004KT 05/M05 A3033 RMK A01 T00461045  RH  052%=      5-min Rain = 0
KNH1 291146Z 28004KT 05/M05 A3033 RMK A01 T00451045  RH  052%=      5-min Rain = 0
KNH1 291147Z 28003KT 05/M05 A3033 RMK A01 T00451045  RH  052%=      5-min Rain = 0
KNH1 291148Z 28004KT 05/M05 A3033 RMK A01 T00451045  RH  052%=      5-min Rain = 0
KNH1 291149Z 27004KT 05/M05 A3033 RMK A01 T00451046  RH  052%=      5-min Rain = 0
KNH1 291150Z 27004KT 05/M05 A3033 RMK A01 T00451046  RH  052%=      5-min Rain = 0
KNH1 291151Z 27004KT 05/M05 A3033 RMK A01 T00451046  RH  051%=      5-min Rain = 0
KNH1 291152Z 28005KT 05/M05 A3033 RMK A01 T00451046  RH  052%=      5-min Rain = 0
KNH1 291153Z 28005KT 05/M05 A3033 RMK A01 T00451046  RH  052%=      5-min Rain = 0
KNH1 291154Z 28005KT 05/M05 A3033 RMK A01 T00461045  RH  052%=      5-min Rain = 0
KNH1 291155Z 28005KT 05/M05 A3034 RMK A01 T00461045  RH  052%=      5-min Rain = 0
KNH1 291156Z 28005KT 05/M05 A3034 RMK A01 T00461045  RH  052%=      5-min Rain = 0
KNH1 291157Z 28005KT 05/M04 A3034 RMK A01 T00461044  RH  052%=      5-min Rain = 0
KNH1 291158Z 28005KT 05/M04 A3034 RMK A01 T00471044  RH  052%=      5-min Rain = 0
KNH1 291159Z 28005KT 05/M04 A3034 RMK A01 T00471044  RH  051%=      5-min Rain = 0
KNH1 291200Z 27004KT 05/M04 A3034 RMK A01 T00481044  RH  051%=      5-min Rain = 0
KNH1 291201Z 27005KT 05/M04 A3034 RMK A01 T00481044  RH  051%=      5-min Rain = 0
KNH1 291202Z 28005KT 05/M04 A3034 RMK A01 T00481044  RH  052%=      5-min Rain = 0
KNH1 291203Z 28005KT 05/M04 A3034 RMK A01 T00471044  RH  052%=      5-min Rain = 0
KNH1 291204Z 28005KT 05/M04 A3034 RMK A01 T00471044  RH  052%=      5-min Rain = 0
KNH1 291205Z 28006KT 05/M04 A3034 RMK A01 T00471044  RH  052%=      5-min Rain = 0
KNH1 291206Z 28006KT 05/M04 A3034 RMK A01 T00481044  RH  051%=      5-min Rain = 0
KNH1 291207Z 28006KT 05/M04 A3034 RMK A01 T00481044  RH  051%=      5-min Rain = 0
KNH1 291208Z 28007KT 05/M04 A3034 RMK A01 T00491044  RH  051%=      5-min Rain = 0
KNH1 291209Z 28006KT 05/M04 A3034 RMK A01 T00501044  RH  051%=      5-min Rain = 0
KNH1 291210Z 28006KT 05/M04 A3034 RMK A01 T00501044  RH  050%=      5-min Rain = 0
KNH1 291211Z 28006KT 05/M04 A3034 RMK A01 T00511044  RH  050%=      5-min Rain = 0
KNH1 291212Z 28006KT 05/M05 A3034 RMK A01 T00511045  RH  050%=      5-min Rain = 0
KNH1 291213Z 28006KT 05/M05 A3034 RMK A01 T00521045  RH  050%=      5-min Rain = 0
KNH1 291214Z 28006KT 05/M04 A3034 RMK A01 T00521044  RH  050%=      5-min Rain = 0
KNH1 291215Z 28006KT 05/M04 A3034 RMK A01 T00531044  RH  049%=      5-min Rain = 0
KNH1 291216Z 28006KT 05/M04 A3034 RMK A01 T00541044  RH  049%=      5-min Rain = 0
KNH1 291217Z 29005KT 05/M04 A3034 RMK A01 T00541044  RH  049%=      5-min Rain = 0
KNH1 291218Z 28006KT 05/M04 A3034 RMK A01 T00541044  RH  049%=      5-min Rain = 0
KNH1 291219Z 29006KT 06/M04 A3034 RMK A01 T00551044  RH  049%=      5-min Rain = 0
KNH1 291220Z 28005KT 06/M04 A3034 RMK A01 T00551044  RH  049%=      5-min Rain = 0
KNH1 291221Z 28005KT 06/M05 A3034 RMK A01 T00551045  RH  049%=      5-min Rain = 0
KNH1 291222Z 28005KT 06/M05 A3034 RMK A01 T00551045  RH  048%=      5-min Rain = 0
KNH1 291223Z 27005KT 06/M05 A3034 RMK A01 T00551046  RH  048%=      5-min Rain = 0
KNH1 291224Z 26005KT 06/M05 A3034 RMK A01 T00551046  RH  048%=      5-min Rain = 0
KNH1 291225Z 26005KT 05/M05 A3034 RMK A01 T00541046  RH  049%=      5-min Rain = 0
KNH1 291226Z 26005KT 05/M05 A3034 RMK A01 T00531046  RH  049%=      5-min Rain = 0
KNH1 291227Z 26005KT 05/M05 A3034 RMK A01 T00531046  RH  049%=      5-min Rain = 0
KNH1 291228Z 27006KT 05/M05 A3034 RMK A01 T00531046  RH  049%=      5-min Rain = 0
KNH1 291229Z 27006KT 05/M05 A3034 RMK A01 T00531046  RH  049%=      5-min Rain = 0
KNH1 291230Z 27005KT 05/M05 A3034 RMK A01 T00531046  RH  049%=      5-min Rain = 0
KNH1 291231Z 27006KT 05/M05 A3034 RMK A01 T00531046  RH  049%=      5-min Rain = 0
KNH1 291232Z 27006KT 05/M05 A3034 RMK A01 T00531046  RH  049%=      5-min Rain = 0
KNH1 291233Z 27006KT 05/M05 A3034 RMK A01 T00541047  RH  048%=      5-min Rain = 0
KNH1 291234Z 28005KT 05/M05 A3034 RMK A01 T00541047  RH  048%=      5-min Rain = 0
KNH1 291235Z 27006KT 05/M05 A3034 RMK A01 T00541047  RH  048%=      5-min Rain = 0
KNH1 291236Z 27006KT 05/M05 A3034 RMK A01 T00541047  RH  048%=      5-min Rain = 0
KNH1 291237Z 27005KT 05/M05 A3034 RMK A01 T00541047  RH  048%=      5-min Rain = 0
KNH1 291238Z 28006KT 05/M05 A3034 RMK A01 T00541047  RH  048%=      5-min Rain = 0
KNH1 291239Z 28006KT 05/M05 A3034 RMK A01 T00541047  RH  048%=      5-min Rain = 0
KNH1 291240Z 28006KT 05/M05 A3034 RMK A01 T00541047  RH  048%=      5-min Rain = 0
KNH1 291241Z 28006KT 06/M05 A3034 RMK A01 T00551047  RH  048%=      5-min Rain = 0
KNH1 291242Z 28006KT 06/M05 A3034 RMK A01 T00551047  RH  048%=      5-min Rain = 0
KNH1 291243Z 28006KT 06/M05 A3034 RMK A01 T00551047  RH  048%=      5-min Rain = 0
KNH1 291244Z 28006KT 06/M05 A3034 RMK A01 T00561046  RH  048%=      5-min Rain = 0
KNH1 291245Z 28005KT 06/M05 A3034 RMK A01 T00561047  RH  048%=      5-min Rain = 0
KNH1 291246Z 28006KT 06/M05 A3034 RMK A01 T00561046  RH  048%=      5-min Rain = 0
KNH1 291247Z 29005KT 06/M05 A3034 RMK A01 T00561046  RH  048%=      5-min Rain = 0
KNH1 291248Z 29005KT 06/M05 A3033 RMK A01 T00571046  RH  048%=      5-min Rain = 0
KNH1 291249Z 28005KT 06/M05 A3033 RMK A01 T00571046  RH  048%=      5-min Rain = 0
KNH1 291250Z 28006KT 06/M05 A3033 RMK A01 T00571046  RH  048%=      5-min Rain = 0
KNH1 291251Z 28006KT 06/M05 A3034 RMK A01 T00581045  RH  047%=      5-min Rain = 0
KNH1 291252Z 28006KT 06/M05 A3034 RMK A01 T00581046  RH  047%=      5-min Rain = 0
KNH1 291253Z 28006KT 06/M05 A3034 RMK A01 T00581046  RH  047%=      5-min Rain = 0
KNH1 291254Z 28007KT 06/M05 A3034 RMK A01 T00581047  RH  047%=      5-min Rain = 0
KNH1 291255Z 27006KT 06/M05 A3034 RMK A01 T00581047  RH  047%=      5-min Rain = 0
KNH1 291256Z 27007KT 06/M05 A3034 RMK A01 T00581047  RH  047%=      5-min Rain = 0
KNH1 291257Z 27006KT 06/M05 A3034 RMK A01 T00581047  RH  047%=      5-min Rain = 0
KNH1 291258Z 28006KT 06/M05 A3034 RMK A01 T00581047  RH  047%=      5-min Rain = 0
KNH1 291259Z 27006KT 06/M05 A3033 RMK A01 T00581047  RH  047%=      5-min Rain = 0
KNH1 291300Z 28006KT 06/M05 A3033 RMK A01 T00591047  RH  047%=      5-min Rain = 0
KNH1 291301Z 28006KT 06/M05 A3033 RMK A01 T00601047  RH  046%=      5-min Rain = 0
KNH1 291302Z 28006KT 06/M05 A3033 RMK A01 T00611047  RH  046%=      5-min Rain = 0
KNH1 291303Z 28006KT 06/M05 A3033 RMK A01 T00621047  RH  045%=      5-min Rain = 0
KNH1 291304Z 28007KT 06/M05 A3034 RMK A01 T00641047  RH  045%=      5-min Rain = 0
KNH1 291305Z 28006KT 07/M05 A3034 RMK A01 T00661047  RH  044%=      5-min Rain = 0
KNH1 291306Z 28006KT 07/M05 A3034 RMK A01 T00671047  RH  044%=      5-min Rain = 0
KNH1 291307Z 28006KT 07/M05 A3034 RMK A01 T00681047  RH  044%=      5-min Rain = 0
KNH1 291308Z 28005KT 07/M05 A3034 RMK A01 T00701047  RH  043%=      5-min Rain = 0
KNH1 291309Z 28006KT 07/M05 A3034 RMK A01 T00701047  RH  043%=      5-min Rain = 0
KNH1 291310Z 29006KT 07/M05 A3034 RMK A01 T00711046  RH  043%=      5-min Rain = 0
KNH1 291311Z 28006KT 07/M05 A3034 RMK A01 T00721045  RH  043%=      5-min Rain = 0
KNH1 291312Z 28005KT 07/M05 A3034 RMK A01 T00721045  RH  043%=      5-min Rain = 0
KNH1 291313Z 28006KT 07/M05 A3034 RMK A01 T00731045  RH  043%=      5-min Rain = 0
KNH1 291314Z 28006KT 07/M05 A3034 RMK A01 T00731045  RH  043%=      5-min Rain = 0
KNH1 291315Z 28007KT 07/M05 A3034 RMK A01 T00741045  RH  043%=      5-min Rain = 0
KNH1 291316Z 28007KT 08/M05 A3034 RMK A01 T00751045  RH  042%=      5-min Rain = 0
KNH1 291317Z 28007KT 08/M05 A3034 RMK A01 T00761045  RH  042%=      5-min Rain = 0
KNH1 291318Z 28007KT 08/M05 A3034 RMK A01 T00761045  RH  042%=      5-min Rain = 0
KNH1 291319Z 29007KT 08/M05 A3034 RMK A01 T00761045  RH  042%=      5-min Rain = 0
KNH1 291320Z 29007KT 08/M05 A3034 RMK A01 T00761045  RH  042%=      5-min Rain = 0
KNH1 291321Z 29007KT 08/M05 A3034 RMK A01 T00781045  RH  041%=      5-min Rain = 0
KNH1 291322Z 29006KT 08/M05 A3034 RMK A01 T00781045  RH  041%=      5-min Rain = 0
KNH1 291323Z 29006KT 08/M04 A3034 RMK A01 T00791044  RH  041%=      5-min Rain = 0
KNH1 291324Z 29006KT 08/M05 A3034 RMK A01 T00791046  RH  041%=      5-min Rain = 0
KNH1 291325Z 28007KT 08/M05 A3034 RMK A01 T00801045  RH  041%=      5-min Rain = 0
KNH1 291326Z 29007KT 08/M05 A3034 RMK A01 T00811045  RH  041%=      5-min Rain = 0
KNH1 291327Z 29008KT 08/M05 A3034 RMK A01 T00811045  RH  040%=      5-min Rain = 0
KNH1 291328Z 29006KT 08/M05 A3034 RMK A01 T00821046  RH  040%=      5-min Rain = 0
KNH1 291329Z 28008KT 08/M04 A3034 RMK A01 T00821044  RH  040%=      5-min Rain = 0
KNH1 291330Z 28007KT 08/M04 A3034 RMK A01 T00831044  RH  040%=      5-min Rain = 0
KNH1 291331Z 29007KT 08/M05 A3034 RMK A01 T00831045  RH  040%=      5-min Rain = 0
KNH1 291332Z 29007KT 08/M04 A3034 RMK A01 T00841044  RH  040%=      5-min Rain = 0
KNH1 291333Z 29008KT 09/M04 A3034 RMK A01 T00851044  RH  040%=      5-min Rain = 0
KNH1 291334Z 28007KT 09/M05 A3034 RMK A01 T00861045  RH  039%=      5-min Rain = 0
KNH1 291335Z 28007KT 09/M05 A3034 RMK A01 T00861045  RH  039%=      5-min Rain = 0
KNH1 291336Z 28007KT 09/M04 A3034 RMK A01 T00871044  RH  039%=      5-min Rain = 0
KNH1 291337Z 28007KT 09/M04 A3034 RMK A01 T00881043  RH  039%=      5-min Rain = 0
KNH1 291338Z 29007KT 09/M04 A3034 RMK A01 T00891043  RH  039%=      5-min Rain = 0
KNH1 291339Z 29007KT 09/M04 A3034 RMK A01 T00901043  RH  039%=      5-min Rain = 0
KNH1 291340Z 28006KT 09/M04 A3034 RMK A01 T00911042  RH  039%=      5-min Rain = 0
KNH1 291341Z 29006KT 09/M04 A3034 RMK A01 T00921041  RH  039%=      5-min Rain = 0
KNH1 291342Z 29007KT 09/M04 A3034 RMK A01 T00921042  RH  038%=      5-min Rain = 0
KNH1 291343Z 29007KT 09/M04 A3034 RMK A01 T00931043  RH  038%=      5-min Rain = 0
KNH1 291344Z 29007KT 09/M04 A3034 RMK A01 T00941042  RH  038%=      5-min Rain = 0
KNH1 291345Z 29007KT 10/M04 A3034 RMK A01 T00951041  RH  038%=      5-min Rain = 0
KNH1 291346Z 29008KT 10/M04 A3034 RMK A01 T00961042  RH  037%=      5-min Rain = 0
KNH1 291347Z 29007KT 10/M04 A3034 RMK A01 T00971043  RH  037%=      5-min Rain = 0
KNH1 291348Z 29006KT 10/M04 A3034 RMK A01 T00981043  RH  037%=      5-min Rain = 0
KNH1 291349Z 29007KT 10/M04 A3034 RMK A01 T00981042  RH  037%=      5-min Rain = 0
KNH1 291350Z 29006KT 10/M04 A3034 RMK A01 T01001042  RH  037%=      5-min Rain = 0
KNH1 291351Z 29007KT 10/M04 A3034 RMK A01 T01011041  RH  037%=      5-min Rain = 0
KNH1 291352Z 29005KT 10/M04 A3034 RMK A01 T01021041  RH  036%=      5-min Rain = 0
KNH1 291353Z 29006KT 10/M04 A3034 RMK A01 T01031040  RH  036%=      5-min Rain = 0
KNH1 291354Z 29006KT 10/M04 A3034 RMK A01 T01031040  RH  036%=      5-min Rain = 0
KNH1 291355Z 29006KT 10/M04 A3034 RMK A01 T01041040  RH  036%=      5-min Rain = 0
KNH1 291356Z 29006KT 11/M04 A3034 RMK A01 T01061040  RH  036%=      5-min Rain = 0
KNH1 291357Z 28005KT 11/M04 A3034 RMK A01 T01071039  RH  036%=      5-min Rain = 0
KNH1 291358Z 29006KT 11/M04 A3034 RMK A01 T01081038  RH  036%=      5-min Rain = 0
KNH1 291359Z 29007KT 11/M04 A3034 RMK A01 T01091039  RH  035%=      5-min Rain = 0
KNH1 291400Z 29005KT 11/M04 A3034 RMK A01 T01101040  RH  035%=      5-min Rain = 0
KNH1 291401Z 29006KT 11/M04 A3034 RMK A01 T01121040  RH  034%=      5-min Rain = 0
KNH1 291402Z 29006KT 11/M04 A3034 RMK A01 T01121039  RH  034%=      5-min Rain = 0
KNH1 291403Z 29006KT 11/M04 A3034 RMK A01 T01131039  RH  034%=      5-min Rain = 0
KNH1 291404Z 28006KT 12/M04 A3034 RMK A01 T01151040  RH  034%=      5-min Rain = 0
KNH1 291405Z 28007KT 12/M04 A3034 RMK A01 T01151038  RH  034%=      5-min Rain = 0
KNH1 291406Z 29006KT 12/M04 A3034 RMK A01 T01171038  RH  034%=      5-min Rain = 0
KNH1 291407Z 28005KT 12/M04 A3034 RMK A01 T01181037  RH  034%=      5-min Rain = 0
KNH1 291408Z 29006KT 12/M04 A3034 RMK A01 T01191038  RH  033%=      5-min Rain = 0
KNH1 291409Z 28005KT 12/M04 A3034 RMK A01 T01191038  RH  033%=      5-min Rain = 0
KNH1 291410Z 28005KT 12/M04 A3034 RMK A01 T01201038  RH  033%=      5-min Rain = 0
KNH1 291411Z 29004KT 12/M04 A3034 RMK A01 T01211037  RH  033%=      5-min Rain = 0
KNH1 291412Z 29005KT 12/M04 A3034 RMK A01 T01221036  RH  033%=      5-min Rain = 0
KNH1 291413Z 30005KT 12/M04 A3034 RMK A01 T01241036  RH  032%=      5-min Rain = 0
KNH1 291414Z 29006KT 13/M04 A3034 RMK A01 T01271036  RH  032%=      5-min Rain = 0
KNH1 291415Z 29006KT 13/M04 A3034 RMK A01 T01281039  RH  031%=      5-min Rain = 0
KNH1 291416Z 28005KT 13/M04 A3034 RMK A01 T01291038  RH  031%=      5-min Rain = 0
KNH1 291417Z 28004KT 13/M04 A3034 RMK A01 T01301036  RH  031%=      5-min Rain = 0
KNH1 291418Z 29005KT 13/M03 A3034 RMK A01 T01321034  RH  031%=      5-min Rain = 0
KNH1 291419Z 28005KT 13/M04 A3034 RMK A01 T01331035  RH  031%=      5-min Rain = 0
KNH1 291420Z 28004KT 14/M03 A3034 RMK A01 T01351033  RH  031%=      5-min Rain = 0
KNH1 291421Z 28005KT 14/M03 A3034 RMK A01 T01361032  RH  031%=      5-min Rain = 0
KNH1 291422Z 28007KT 14/M04 A3034 RMK A01 T01381035  RH  030%=      5-min Rain = 0
KNH1 291423Z 28007KT 14/M04 A3034 RMK A01 T01391038  RH  029%=      5-min Rain = 0
KNH1 291424Z 29008KT 14/M04 A3034 RMK A01 T01391038  RH  029%=      5-min Rain = 0
KNH1 291425Z 29007KT 14/M04 A3034 RMK A01 T01391039  RH  029%=      5-min Rain = 0
KNH1 291426Z 28007KT 14/M04 A3034 RMK A01 T01401040  RH  029%=      5-min Rain = 0
KNH1 291427Z 28007KT 14/M04 A3034 RMK A01 T01411036  RH  029%=      5-min Rain = 0
KNH1 291428Z 28010KT 14/M04 A3034 RMK A01 T01441038  RH  028%=      5-min Rain = 0
KNH1 291429Z 29009KT 14/M04 A3034 RMK A01 T01441042  RH  027%=      5-min Rain = 0
KNH1 291430Z 29009KT 15/M04 A3034 RMK A01 T01451041  RH  027%=      5-min Rain = 0
KNH1 291431Z 29010KT 15/M04 A3034 RMK A01 T01461041  RH  027%=      5-min Rain = 0
KNH1 291432Z 29010KT 15/M04 A3034 RMK A01 T01461043  RH  027%=      5-min Rain = 0
KNH1 291433Z 29008KT 15/M04 A3034 RMK A01 T01461042  RH  027%=      5-min Rain = 0
KNH1 291434Z 28007KT 15/M04 A3034 RMK A01 T01471038  RH  028%=      5-min Rain = 0
KNH1 291435Z 29007KT 15/M04 A3034 RMK A01 T01491036  RH  028%=      5-min Rain = 0
KNH1 291436Z 28007KT 15/M04 A3034 RMK A01 T01501037  RH  027%=      5-min Rain = 0
KNH1 291437Z 28006KT 15/M04 A3034 RMK A01 T01511036  RH  027%=      5-min Rain = 0
KNH1 291438Z 27009KT 15/M04 A3034 RMK A01 T01531036  RH  027%=      5-min Rain = 0
KNH1 291439Z 28010KT 15/M04 A3034 RMK A01 T01541039  RH  026%=      5-min Rain = 0
KNH1 291440Z 28010KT 16/M04 A3034 RMK A01 T01551041  RH  026%=      5-min Rain = 0
KNH1 291441Z 28010KT 15/M04 A3034 RMK A01 T01541041  RH  026%=      5-min Rain = 0
KNH1 291442Z 28011KT 15/M04 A3034 RMK A01 T01541041  RH  026%=      5-min Rain = 0
KNH1 291443Z 28011KT 15/M04 A3034 RMK A01 T01541040  RH  026%=      5-min Rain = 0
KNH1 291444Z 29010KT 16/M04 A3034 RMK A01 T01551041  RH  026%=      5-min Rain = 0
KNH1 291445Z 28010KT 16/M04 A3034 RMK A01 T01551040  RH  026%=      5-min Rain = 0
KNH1 291446Z 28008KT 16/M04 A3034 RMK A01 T01561040  RH  026%=      5-min Rain = 0
KNH1 291447Z 28008KT 16/M04 A3034 RMK A01 T01571039  RH  026%=      5-min Rain = 0
KNH1 291448Z 29010KT 16/M04 A3035 RMK A01 T01581039  RH  026%=      5-min Rain = 0
KNH1 291449Z 28007KT 16/M04 A3035 RMK A01 T01581038  RH  026%=      5-min Rain = 0
KNH1 291450Z 29009KT 16/M04 A3035 RMK A01 T01601036  RH  026%=      5-min Rain = 0
KNH1 291451Z 29009KT 16/M04 A3035 RMK A01 T01611036  RH  026%=      5-min Rain = 0
KNH1 291452Z 28009KT 16/M04 A3035 RMK A01 T01621038  RH  025%=      5-min Rain = 0
KNH1 291453Z 29008KT 16/M04 A3035 RMK A01 T01621037  RH  025%=      5-min Rain = 0
KNH1 291454Z 29007KT 16/M04 A3034 RMK A01 T01631037  RH  025%=      5-min Rain = 0
KNH1 291455Z 29009KT 16/M04 A3034 RMK A01 T01631037  RH  025%=      5-min Rain = 0
KNH1 291456Z 29010KT 16/M04 A3034 RMK A01 T01641038  RH  025%=      5-min Rain = 0
KNH1 291457Z 29009KT 17/M04 A3034 RMK A01 T01651037  RH  025%=      5-min Rain = 0
KNH1 291458Z 28011KT 17/M04 A3034 RMK A01 T01661037  RH  025%=      5-min Rain = 0
KNH1 291459Z 29010KT 17/M04 A3034 RMK A01 T01671039  RH  024%=      5-min Rain = 0
KNH1 291500Z 28012KT 17/M04 A3034 RMK A01 T01671039  RH  024%=      5-min Rain = 0
KNH1 291501Z 28010KT 17/M04 A3034 RMK A01 T01671039  RH  024%=      5-min Rain = 0
KNH1 291502Z 29009KT 17/M04 A3034 RMK A01 T01691038  RH  024%=      5-min Rain = 0
KNH1 291503Z 29009KT 17/M04 A3034 RMK A01 T01711039  RH  024%=      5-min Rain = 0
KNH1 291504Z 28008KT 17/M04 A3034 RMK A01 T01711037  RH  024%=      5-min Rain = 0
KNH1 291505Z 27009KT 17/M04 A3034 RMK A01 T01721038  RH  023%=      5-min Rain = 0
KNH1 291506Z 27008KT 17/M04 A3034 RMK A01 T01731039  RH  023%=      5-min Rain = 0
KNH1 291507Z 28009KT 18/M04 A3034 RMK A01 T01751037  RH  023%=      5-min Rain = 0
KNH1 291508Z 28009KT 18/M04 A3034 RMK A01 T01761037  RH  023%=      5-min Rain = 0
KNH1 291509Z 28007KT 18/M04 A3034 RMK A01 T01781035  RH  023%=      5-min Rain = 0
KNH1 291510Z 29010KT 18/M04 A3034 RMK A01 T01791039  RH  022%=      5-min Rain = 0
KNH1 291511Z 29009KT 18/M04 A3034 RMK A01 T01791042  RH  022%=      5-min Rain = 0
KNH1 291512Z 29010KT 18/M04 A3034 RMK A01 T01781040  RH  022%=      5-min Rain = 0
KNH1 291513Z 29010KT 18/M04 A3034 RMK A01 T01781042  RH  022%=      5-min Rain = 0
KNH1 291514Z 29009KT 18/M04 A3034 RMK A01 T01791042  RH  022%=      5-min Rain = 0
KNH1 291515Z 28008KT 18/M04 A3034 RMK A01 T01801040  RH  022%=      5-min Rain = 0
KNH1 291516Z 28008KT 18/M04 A3034 RMK A01 T01821039  RH  022%=      5-min Rain = 0
KNH1 291517Z 29011KT 18/M04 A3034 RMK A01 T01831040  RH  022%=      5-min Rain = 0
KNH1 291518Z 29012KT 18/M04 A3034 RMK A01 T01841042  RH  021%=      5-min Rain = 0
KNH1 291519Z 29010KT 18/M04 A3034 RMK A01 T01831044  RH  021%=      5-min Rain = 0
KNH1 291520Z 29011KT 18/M04 A3034 RMK A01 T01831043  RH  021%=      5-min Rain = 0
KNH1 291521Z 28010KT 18/M05 A3034 RMK A01 T01831045  RH  021%=      5-min Rain = 0
KNH1 291522Z 29010KT 18/M04 A3034 RMK A01 T01831044  RH  021%=      5-min Rain = 0
KNH1 291523Z 29010KT 18/M04 A3034 RMK A01 T01841044  RH  021%=      5-min Rain = 0
KNH1 291524Z 29011KT 19/M04 A3034 RMK A01 T01861044  RH  021%=      5-min Rain = 0
KNH1 291525Z 29011KT 19/M05 A3034 RMK A01 T01861045  RH  020%=      5-min Rain = 0
KNH1 291526Z 28012KT 19/M05 A3034 RMK A01 T01871046  RH  020%=      5-min Rain = 0
KNH1 291527Z 29010KT 19/M04 A3034 RMK A01 T01871044  RH  020%=      5-min Rain = 0
KNH1 291528Z 28011G17KT 19/M05 A3034 RMK A01 T01881045  RH  020%=      5-min Rain = 0
KNH1 291529Z 28012G17KT 19/M05 A3034 RMK A01 T01881048  RH  020%=      5-min Rain = 0
KNH1 291530Z 28012KT 19/M05 A3034 RMK A01 T01881048  RH  020%=      5-min Rain = 0
KNH1 291531Z 29009KT 19/M05 A3034 RMK A01 T01881045  RH  020%=      5-min Rain = 0
KNH1 291532Z 28011KT 19/M05 A3034 RMK A01 T01901046  RH  020%=      5-min Rain = 0
KNH1 291533Z 28012KT 19/M05 A3034 RMK A01 T01901048  RH  020%=      5-min Rain = 0
KNH1 291534Z 28010KT 19/M05 A3034 RMK A01 T01901047  RH  020%=      5-min Rain = 0
KNH1 291535Z 28011KT 19/M05 A3034 RMK A01 T01911047  RH  020%=      5-min Rain = 0
KNH1 291536Z 28011KT 19/M05 A3034 RMK A01 T01931048  RH  019%=      5-min Rain = 0
KNH1 291537Z 27012KT 19/M05 A3034 RMK A01 T01931049  RH  019%=      5-min Rain = 0
KNH1 291538Z 28012KT 19/M05 A3034 RMK A01 T01941049  RH  019%=      5-min Rain = 0
KNH1 291539Z 28011KT 19/M05 A3034 RMK A01 T01941049  RH  019%=      5-min Rain = 0
KNH1 291540Z 28012KT 20/M05 A3034 RMK A01 T01951050  RH  019%=      5-min Rain = 0
KNH1 291541Z 29011KT 19/M05 A3034 RMK A01 T01941049  RH  019%=      5-min Rain = 0
KNH1 291542Z 29010KT 19/M05 A3034 RMK A01 T01941048  RH  019%=      5-min Rain = 0
KNH1 291543Z 28012KT 20/M05 A3034 RMK A01 T01951047  RH  019%=      5-min Rain = 0
KNH1 291544Z 29013KT 20/M05 A3034 RMK A01 T01961050  RH  018%=      5-min Rain = 0
KNH1 291545Z 29012KT 20/M05 A3034 RMK A01 T01971051  RH  018%=      5-min Rain = 0
KNH1 291546Z 29012KT 20/M05 A3034 RMK A01 T01961050  RH  018%=      5-min Rain = 0
KNH1 291547Z 28012KT 20/M05 A3034 RMK A01 T01971050  RH  018%=      5-min Rain = 0
KNH1 291548Z 29013KT 20/M05 A3034 RMK A01 T01971053  RH  018%=      5-min Rain = 0
KNH1 291549Z 29013KT 20/M05 A3034 RMK A01 T01971054  RH  018%=      5-min Rain = 0
KNH1 291550Z 28012KT 20/M05 A3034 RMK A01 T01971053  RH  018%=      5-min Rain = 0
KNH1 291551Z 28012KT 20/M05 A3034 RMK A01 T01971051  RH  018%=      5-min Rain = 0
KNH1 291552Z 27012KT 20/M05 A3033 RMK A01 T01981052  RH  018%=      5-min Rain = 0
KNH1 291553Z 27011KT 20/M05 A3033 RMK A01 T01991050  RH  018%=      5-min Rain = 0
KNH1 291554Z 28013KT 20/M05 A3033 RMK A01 T02001052  RH  018%=      5-min Rain = 0
KNH1 291555Z 29009KT 20/M05 A3033 RMK A01 T02001052  RH  018%=      5-min Rain = 0
KNH1 291556Z 29010KT 20/M05 A3033 RMK A01 T02011050  RH  018%=      5-min Rain = 0
KNH1 291557Z 28010KT 20/M05 A3033 RMK A01 T02021050  RH  018%=      5-min Rain = 0
KNH1 291558Z 28013KT 20/M05 A3033 RMK A01 T02021048  RH  018%=      5-min Rain = 0
KNH1 291559Z 28013KT 20/M05 A3033 RMK A01 T02031053  RH  017%=      5-min Rain = 0
KNH1 291600Z 28010KT 20/M05 A3033 RMK A01 T02021049  RH  018%=      5-min Rain = 0
KNH1 291601Z 29014KT 20/M05 A3033 RMK A01 T02041050  RH  018%=      5-min Rain = 0
KNH1 291602Z 29014KT 20/M05 A3033 RMK A01 T02041053  RH  017%=      5-min Rain = 0
KNH1 291603Z 29012KT 20/M05 A3033 RMK A01 T02031052  RH  017%=      5-min Rain = 0
KNH1 291604Z 29012KT 20/M05 A3033 RMK A01 T02031052  RH  017%=      5-min Rain = 0
KNH1 291605Z 30011KT 20/M05 A3033 RMK A01 T02031053  RH  017%=      5-min Rain = 0
KNH1 291606Z 29013KT 20/M05 A3033 RMK A01 T02031053  RH  017%=      5-min Rain = 0
KNH1 291607Z 28012KT 21/M05 A3033 RMK A01 T02051052  RH  017%=      5-min Rain = 0
KNH1 291608Z 29011KT 21/M05 A3033 RMK A01 T02061051  RH  017%=      5-min Rain = 0
KNH1 291609Z 29011KT 21/M05 A3033 RMK A01 T02061053  RH  017%=      5-min Rain = 0
KNH1 291610Z 28010KT 21/M05 A3033 RMK A01 T02061049  RH  018%=      5-min Rain = 0
KNH1 291611Z 27012KT 21/M05 A3033 RMK A01 T02081046  RH  018%=      5-min Rain = 0
KNH1 291612Z 27012KT 21/M05 A3033 RMK A01 T02101050  RH  017%=      5-min Rain = 0
KNH1 291613Z 27012KT 21/M05 A3033 RMK A01 T02101050  RH  017%=      5-min Rain = 0
KNH1 291614Z 28012KT 21/M05 A3033 RMK A01 T02101049  RH  017%=      5-min Rain = 0
KNH1 291615Z 28012KT 21/M05 A3033 RMK A01 T02111048  RH  017%=      5-min Rain = 0
KNH1 291616Z 28010KT 21/M05 A3033 RMK A01 T02101047  RH  017%=      5-min Rain = 0
KNH1 291617Z 27011KT 21/M05 A3033 RMK A01 T02111046  RH  017%=      5-min Rain = 0
KNH1 291618Z 28015KT 21/M05 A3033 RMK A01 T02111050  RH  017%=      5-min Rain = 0
KNH1 291619Z 29013KT 21/M05 A3033 RMK A01 T02111052  RH  017%=      5-min Rain = 0
KNH1 291620Z 29010KT 21/M05 A3033 RMK A01 T02091052  RH  017%=      5-min Rain = 0
KNH1 291621Z 28010KT 21/M05 A3033 RMK A01 T02091048  RH  017%=      5-min Rain = 0
KNH1 291622Z 29012KT 21/M05 A3033 RMK A01 T02111046  RH  017%=      5-min Rain = 0
KNH1 291623Z 29013KT 21/M05 A3033 RMK A01 T02131047  RH  017%=      5-min Rain = 0
KNH1 291624Z 29010KT 21/M05 A3033 RMK A01 T02121049  RH  017%=      5-min Rain = 0
KNH1 291625Z 30011KT 21/M05 A3033 RMK A01 T02141048  RH  017%=      5-min Rain = 0
KNH1 291626Z 30010KT 22/M05 A3033 RMK A01 T02151051  RH  016%=      5-min Rain = 0
KNH1 291627Z 29012KT 22/M05 A3033 RMK A01 T02161051  RH  016%=      5-min Rain = 0
KNH1 291628Z 29014KT 22/M05 A3033 RMK A01 T02171051  RH  016%=      5-min Rain = 0
KNH1 291629Z 29012KT 22/M05 A3033 RMK A01 T02151052  RH  016%=      5-min Rain = 0
KNH1 291630Z 30012KT 21/M05 A3033 RMK A01 T02141049  RH  017%=      5-min Rain = 0
KNH1 291631Z 28011KT 22/M05 A3033 RMK A01 T02151048  RH  017%=      5-min Rain = 0
KNH1 291632Z 29011KT 22/M05 A3033 RMK A01 T02161047  RH  017%=      5-min Rain = 0
KNH1 291633Z 29011KT 22/M05 A3033 RMK A01 T02181046  RH  017%=      5-min Rain = 0
KNH1 291634Z 29013KT 22/M05 A3033 RMK A01 T02181049  RH  016%=      5-min Rain = 0
KNH1 291635Z 29009KT 22/M05 A3033 RMK A01 T02181048  RH  016%=      5-min Rain = 0
KNH1 291636Z 30012KT 22/M05 A3033 RMK A01 T02201052  RH  016%=      5-min Rain = 0
KNH1 291637Z 30011KT 22/M06 A3033 RMK A01 T02211055  RH  015%=      5-min Rain = 0
KNH1 291638Z 30012KT 22/M06 A3033 RMK A01 T02201057  RH  015%=      5-min Rain = 0
KNH1 291639Z 31011KT 22/M06 A3033 RMK A01 T02171055  RH  016%=      5-min Rain = 0
KNH1 291640Z 30011KT 22/M06 A3033 RMK A01 T02171055  RH  016%=      5-min Rain = 0
KNH1 291641Z 29012KT 22/M06 A3033 RMK A01 T02181058  RH  015%=      5-min Rain = 0
KNH1 291642Z 29013KT 22/M06 A3033 RMK A01 T02191060  RH  015%=      5-min Rain = 0
KNH1 291643Z 29012KT 22/M06 A3033 RMK A01 T02181060  RH  015%=      5-min Rain = 0
KNH1 291644Z 30008KT 22/M06 A3033 RMK A01 T02181055  RH  016%=      5-min Rain = 0
KNH1 291645Z 30011KT 22/M06 A3033 RMK A01 T02201055  RH  015%=      5-min Rain = 0
KNH1 291646Z 31009KT 22/M06 A3033 RMK A01 T02211059  RH  015%=      5-min Rain = 0
KNH1 291647Z 30009KT 22/M06 A3033 RMK A01 T02211062  RH  014%=      5-min Rain = 0
KNH1 291648Z 31010G15KT 22/M06 A3033 RMK A01 T02211060  RH  015%=      5-min Rain = 0
KNH1 291649Z 29011KT 22/M06 A3033 RMK A01 T02211061  RH  015%=      5-min Rain = 0
KNH1 291650Z 29011KT 22/M06 A3033 RMK A01 T02211061  RH  015%=      5-min Rain = 0
KNH1 291651Z 29009KT 22/M06 A3032 RMK A01 T02201063  RH  014%=      5-min Rain = 0
KNH1 291652Z 29011KT 22/M06 A3032 RMK A01 T02211062  RH  014%=      5-min Rain = 0
KNH1 291653Z 29009KT 22/M06 A3032 RMK A01 T02221061  RH  015%=      5-min Rain = 0
KNH1 291654Z 29009KT 22/M06 A3032 RMK A01 T02231059  RH  015%=      5-min Rain = 0
KNH1 291655Z 28008KT 22/M06 A3032 RMK A01 T02231057  RH  015%=      5-min Rain = 0
KNH1 291656Z 29008KT 22/M06 A3032 RMK A01 T02241055  RH  015%=      5-min Rain = 0
KNH1 291657Z 30009KT 23/M05 A3032 RMK A01 T02261054  RH  015%=      5-min Rain = 0
KNH1 291658Z 29008KT 23/M06 A3032 RMK A01 T02281060  RH  014%=      5-min Rain = 0
KNH1 291659Z 30007KT 23/M06 A3032 RMK A01 T02271056  RH  015%=      5-min Rain = 0
KNH1 291700Z 29009KT 23/M06 A3032 RMK A01 T02281058  RH  014%=      5-min Rain = 0
KNH1 291701Z 29009KT 23/M06 A3032 RMK A01 T02291058  RH  014%=      5-min Rain = 0
KNH1 291702Z 30009KT 23/M06 A3032 RMK A01 T02291061  RH  014%=      5-min Rain = 0
KNH1 291703Z 31009KT 23/M07 A3032 RMK A01 T02251067  RH  014%=      5-min Rain = 0
KNH1 291704Z 31008KT 22/M06 A3032 RMK A01 T02231064  RH  014%=      5-min Rain = 0
KNH1 291705Z 31007KT 22/M06 A3032 RMK A01 T02241061  RH  014%=      5-min Rain = 0
KNH1 291706Z 31007KT 23/M06 A3032 RMK A01 T02251060  RH  014%=      5-min Rain = 0
KNH1 291707Z 31007KT 23/M06 A3032 RMK A01 T02271056  RH  015%=      5-min Rain = 0
KNH1 291708Z 30007KT 23/M06 A3032 RMK A01 T02301058  RH  014%=      5-min Rain = 0
KNH1 291709Z 30007KT 23/M06 A3032 RMK A01 T02311058  RH  014%=      5-min Rain = 0
KNH1 291710Z 27006KT 23/M05 A3032 RMK A01 T02321053  RH  015%=      5-min Rain = 0
KNH1 291711Z 30009KT 23/M06 A3032 RMK A01 T02331055  RH  014%=      5-min Rain = 0
KNH1 291712Z 31009KT 23/M06 A3032 RMK A01 T02321061  RH  014%=      5-min Rain = 0
KNH1 291713Z 30008KT 23/M06 A3032 RMK A01 T02311064  RH  013%=      5-min Rain = 0
KNH1 291714Z 31006KT 23/M06 A3032 RMK A01 T02301060  RH  014%=      5-min Rain = 0
KNH1 291715Z 32007KT 23/M06 A3032 RMK A01 T02321058  RH  014%=      5-min Rain = 0
KNH1 291716Z 28011KT 23/M06 A3032 RMK A01 T02321056  RH  014%=      5-min Rain = 0
KNH1 291717Z 28011KT 23/M05 A3032 RMK A01 T02301053  RH  015%=      5-min Rain = 0
KNH1 291718Z 29008KT 23/M05 A3032 RMK A01 T02301054  RH  015%=      5-min Rain = 0
KNH1 291719Z 30008KT 23/M06 A3032 RMK A01 T02301057  RH  014%=      5-min Rain = 0
KNH1 291720Z 29008KT 23/M06 A3032 RMK A01 T02281058  RH  014%=      5-min Rain = 0
KNH1 291721Z 29007KT 23/M06 A3032 RMK A01 T02271060  RH  014%=      5-min Rain = 0
KNH1 291722Z 27004KT 23/M06 A3032 RMK A01 T02281056  RH  015%=      5-min Rain = 0
KNH1 291723Z 29011KT 23/M06 A3032 RMK A01 T02291056  RH  014%=      5-min Rain = 0
KNH1 291724Z 30007KT 23/M05 A3032 RMK A01 T02311054  RH  014%=      5-min Rain = 0
KNH1 291725Z 30008G13KT 23/M06 A3032 RMK A01 T02311055  RH  014%=      5-min Rain = 0
KNH1 291726Z 30011KT 23/M05 A3032 RMK A01 T02321051  RH  015%=      5-min Rain = 0
KNH1 291727Z 29009KT 23/M05 A3032 RMK A01 T02321051  RH  015%=      5-min Rain = 0
KNH1 291728Z 29007KT 23/M05 A3032 RMK A01 T02321052  RH  015%=      5-min Rain = 0
KNH1 291729Z 31009KT 23/M05 A3032 RMK A01 T02331048  RH  015%=      5-min Rain = 0
KNH1 291730Z 30008KT 23/M05 A3032 RMK A01 T02341050  RH  015%=      5-min Rain = 0
KNH1 291731Z 28012KT 23/M05 A3032 RMK A01 T02331046  RH  015%=      5-min Rain = 0
KNH1 291732Z 29011KT 23/M05 A3032 RMK A01 T02311048  RH  015%=      5-min Rain = 0
KNH1 291733Z 28010KT 23/M05 A3032 RMK A01 T02301047  RH  015%=      5-min Rain = 0
KNH1 291734Z 28010KT 23/M05 A3032 RMK A01 T02331045  RH  015%=      5-min Rain = 0
KNH1 291735Z 28011KT 23/M05 A3032 RMK A01 T02341045  RH  015%=      5-min Rain = 0
KNH1 291736Z 28007KT 23/M04 A3032 RMK A01 T02331044  RH  016%=      5-min Rain = 0
KNH1 291737Z 29008KT 23/M04 A3031 RMK A01 T02331044  RH  015%=      5-min Rain = 0
KNH1 291738Z 31009KT 23/M04 A3031 RMK A01 T02341043  RH  016%=      5-min Rain = 0
KNH1 291739Z 32007KT 23/M05 A3031 RMK A01 T02331045  RH  015%=      5-min Rain = 0
KNH1 291740Z 33008KT 23/M04 A3031 RMK A01 T02331044  RH  015%=      5-min Rain = 0
KNH1 291741Z 32005KT 23/M04 A3031 RMK A01 T02341044  RH  015%=      5-min Rain = 0
KNH1 291742Z 31006KT 24/M04 A3031 RMK A01 T02351044  RH  015%=      5-min Rain = 0
KNH1 291743Z 27008KT 24/M04 A3031 RMK A01 T02351040  RH  016%=      5-min Rain = 0
KNH1 291744Z 27010KT 24/M04 A3031 RMK A01 T02371039  RH  016%=      5-min Rain = 0
KNH1 291745Z 28010KT 24/M04 A3031 RMK A01 T02361040  RH  016%=      5-min Rain = 0
KNH1 291746Z 27008KT 24/M04 A3031 RMK A01 T02361038  RH  016%=      5-min Rain = 0
KNH1 291747Z 30008KT 24/M03 A3031 RMK A01 T02381034  RH  016%=      5-min Rain = 0
KNH1 291748Z 29008KT 24/M03 A3031 RMK A01 T02401034  RH  016%=      5-min Rain = 0
KNH1 291749Z 30010KT 24/M04 A3031 RMK A01 T02371035  RH  016%=      5-min Rain = 0
KNH1 291750Z 29012KT 24/M04 A3031 RMK A01 T02361035  RH  016%=      5-min Rain = 0
KNH1 291751Z 29009KT 24/M04 A3031 RMK A01 T02351035  RH  016%=      5-min Rain = 0
KNH1 291752Z 30004KT 24/M03 A3031 RMK A01 T02351033  RH  017%=      5-min Rain = 0
KNH1 291753Z 31004KT 24/M03 A3031 RMK A01 T02381033  RH  016%=      5-min Rain = 0
KNH1 291754Z 29009KT 24/M03 A3031 RMK A01 T02411031  RH  016%=      5-min Rain = 0
KNH1 291755Z 30009KT 24/M03 A3031 RMK A01 T02431031  RH  016%=      5-min Rain = 0
KNH1 291756Z 29008KT 24/M03 A3031 RMK A01 T02421033  RH  016%=      5-min Rain = 0
KNH1 291757Z 29009KT 24/M03 A3031 RMK A01 T02391034  RH  016%=      5-min Rain = 0
KNH1 291758Z 29007KT 24/M03 A3031 RMK A01 T02381033  RH  016%=      5-min Rain = 0
KNH1 291759Z 28011KT 24/M03 A3031 RMK A01 T02381030  RH  017%=      5-min Rain = 0
KNH1 291800Z 28009KT 24/M03 A3031 RMK A01 T02401033  RH  016%=      5-min Rain = 0
KNH1 291801Z 27009KT 24/M03 A3031 RMK A01 T02391030  RH  017%=      5-min Rain = 0
KNH1 291802Z 27010KT 24/M03 A303 RMK A01 T02411028  RH  017%=      5-min Rain = 0
KNH1 291803Z 28010KT 24/M03 A303 RMK A01 T02431029  RH  016%=      5-min Rain = 0
KNH1 291804Z 29009KT 24/M03 A303 RMK A01 T02431030  RH  016%=      5-min Rain = 0
KNH1 291805Z 31006KT 24/M03 A303 RMK A01 T02401031  RH  016%=      5-min Rain = 0
KNH1 291806Z 29007KT 24/M03 A303 RMK A01 T02401031  RH  016%=      5-min Rain = 0
KNH1 291807Z 29006KT 24/M03 A303 RMK A01 T02381033  RH  016%=      5-min Rain = 0
KNH1 291808Z 30004KT 24/M03 A303 RMK A01 T02371030  RH  017%=      5-min Rain = 0
KNH1 291809Z 27006KT 24/M03 A303 RMK A01 T02381031  RH  017%=      5-min Rain = 0
KNH1 291810Z 30012KT 24/M03 A303 RMK A01 T02391030  RH  017%=      5-min Rain = 0
KNH1 291811Z 29011KT 24/M03 A303 RMK A01 T02401031  RH  016%=      5-min Rain = 0
KNH1 291812Z 30009KT 24/M03 A303 RMK A01 T02391031  RH  016%=      5-min Rain = 0
KNH1 291813Z 28008KT 24/M03 A303 RMK A01 T02401031  RH  016%=      5-min Rain = 0
KNH1 291814Z 29007KT 24/M03 A303 RMK A01 T02391031  RH  016%=      5-min Rain = 0
KNH1 291815Z 31008KT 24/M03 A303 RMK A01 T02381032  RH  016%=      5-min Rain = 0
KNH1 291816Z 29010KT 24/M03 A303 RMK A01 T02401026  RH  017%=      5-min Rain = 0
KNH1 291817Z 29011KT 25/M03 A303 RMK A01 T02451027  RH  016%=      5-min Rain = 0
KNH1 291818Z 29009KT 25/M03 A303 RMK A01 T02451030  RH  016%=      5-min Rain = 0
KNH1 291819Z 27007KT 24/M03 A303 RMK A01 T02431029  RH  016%=      5-min Rain = 0
KNH1 291820Z 28007KT 24/M03 A303 RMK A01 T02431031  RH  016%=      5-min Rain = 0
KNH1 291821Z 29006KT 24/M03 A3029 RMK A01 T02421030  RH  016%=      5-min Rain = 0
KNH1 291822Z 30006KT 24/M03 A3029 RMK A01 T02431032  RH  016%=      5-min Rain = 0
KNH1 291823Z 31005KT 24/M03 A3029 RMK A01 T02421032  RH  016%=      5-min Rain = 0
KNH1 291824Z 28009KT 24/M03 A3029 RMK A01 T02441026  RH  017%=      5-min Rain = 0
KNH1 291825Z 29009KT 25/M03 A3029 RMK A01 T02451031  RH  016%=      5-min Rain = 0
KNH1 291826Z 27010G17KT 24/M03 A3029 RMK A01 T02431033  RH  016%=      5-min Rain = 0
KNH1 291827Z 29013KT 24/M03 A3029 RMK A01 T02431029  RH  016%=      5-min Rain = 0
KNH1 291828Z 30012KT 25/M03 A3029 RMK A01 T02451029  RH  016%=      5-min Rain = 0
KNH1 291829Z 30012G18KT 25/M03 A3029 RMK A01 T02451032  RH  016%=      5-min Rain = 0
KNH1 291830Z 32007KT 24/M03 A3029 RMK A01 T02431033  RH  016%=      5-min Rain = 0
KNH1 291831Z 31009KT 24/M03 A3029 RMK A01 T02421031  RH  016%=      5-min Rain = 0
KNH1 291832Z 32007KT 24/M03 A3029 RMK A01 T02411031  RH  016%=      5-min Rain = 0
KNH1 291833Z 32007KT 24/M03 A3029 RMK A01 T02421031  RH  016%=      5-min Rain = 0
KNH1 291834Z 33009KT 24/M03 A3029 RMK A01 T02431033  RH  016%=      5-min Rain = 0
KNH1 291835Z 33009KT 24/M03 A3029 RMK A01 T02421034  RH  016%=      5-min Rain = 0
KNH1 291836Z 35006KT 24/M03 A3028 RMK A01 T02411032  RH  016%=      5-min Rain = 0
KNH1 291837Z 35004KT 24/M03 A3028 RMK A01 T02421030  RH  016%=      5-min Rain = 0
KNH1 291838Z 32006KT 25/M03 A3028 RMK A01 T02451029  RH  016%=      5-min Rain = 0
KNH1 291839Z 29005KT 25/M03 A3028 RMK A01 T02461030  RH  016%=      5-min Rain = 0
KNH1 291840Z 28008G14KT 25/M03 A3028 RMK A01 T02471030  RH  016%=      5-min Rain = 0
KNH1 291841Z 30012KT 25/M03 A3028 RMK A01 T02471029  RH  016%=      5-min Rain = 0
KNH1 291842Z 29010KT 25/M03 A3028 RMK A01 T02481030  RH  016%=      5-min Rain = 0
KNH1 291843Z 27008KT 25/M03 A3028 RMK A01 T02501030  RH  015%=      5-min Rain = 0
KNH1 291844Z 29007KT 25/M03 A3028 RMK A01 T02491030  RH  016%=      5-min Rain = 0
KNH1 291845Z 31007KT 25/M03 A3028 RMK A01 T02481032  RH  015%=      5-min Rain = 0
KNH1 291846Z 28005KT 25/M04 A3028 RMK A01 T02451036  RH  015%=      5-min Rain = 0
KNH1 291847Z 29007KT 24/M03 A3028 RMK A01 T02431033  RH  016%=      5-min Rain = 0
KNH1 291848Z 26006KT 24/M03 A3028 RMK A01 T02431031  RH  016%=      5-min Rain = 0
KNH1 291849Z 30007KT 25/M03 A3028 RMK A01 T02461028  RH  016%=      5-min Rain = 0
KNH1 291850Z 30011KT 25/M03 A3028 RMK A01 T02491027  RH  016%=      5-min Rain = 0
KNH1 291851Z 31009KT 25/M03 A3028 RMK A01 T02501030  RH  015%=      5-min Rain = 0
KNH1 291852Z 32007KT 25/M03 A3028 RMK A01 T02491029  RH  016%=      5-min Rain = 0
KNH1 291853Z 33010KT 25/M03 A3028 RMK A01 T02491030  RH  016%=      5-min Rain = 0
KNH1 291854Z 33009KT 25/M03 A3028 RMK A01 T02471032  RH  016%=      5-min Rain = 0
KNH1 291855Z 33007KT 25/M03 A3027 RMK A01 T02451032  RH  016%=      5-min Rain = 0
KNH1 291856Z 32004KT 24/M03 A3027 RMK A01 T02441033  RH  016%=      5-min Rain = 0
KNH1 291857Z 33006KT 24/M03 A3027 RMK A01 T02431031  RH  016%=      5-min Rain = 0
KNH1 291858Z 31007KT 25/M03 A3027 RMK A01 T02451030  RH  016%=      5-min Rain = 0
KNH1 291859Z 29009KT 25/M03 A3027 RMK A01 T02481028  RH  016%=      5-min Rain = 0
KNH1 291900Z 29007KT 25/M03 A3027 RMK A01 T02481031  RH  016%=      5-min Rain = 0
KNH1 291901Z 30011KT 25/M03 A3027 RMK A01 T02481029  RH  016%=      5-min Rain = 0
KNH1 291902Z 31010KT 25/M03 A3027 RMK A01 T02501030  RH  015%=      5-min Rain = 0
KNH1 291903Z 32008KT 25/M03 A3027 RMK A01 T02481032  RH  015%=      5-min Rain = 0
KNH1 291904Z 33010KT 25/M03 A3027 RMK A01 T02471030  RH  016%=      5-min Rain = 0
KNH1 291905Z 31008KT 25/M03 A3027 RMK A01 T02481030  RH  016%=      5-min Rain = 0
KNH1 291906Z 30008KT 25/M03 A3027 RMK A01 T02491032  RH  015%=      5-min Rain = 0
KNH1 291907Z 29007KT 25/M03 A3026 RMK A01 T02481031  RH  016%=      5-min Rain = 0
KNH1 291908Z 31006KT 25/M03 A3026 RMK A01 T02491028  RH  016%=      5-min Rain = 0
KNH1 291909Z 31007KT 25/M03 A3026 RMK A01 T02521029  RH  015%=      5-min Rain = 0
KNH1 291910Z 30004KT 25/M03 A3026 RMK A01 T02541032  RH  015%=      5-min Rain = 0
KNH1 291911Z 31003KT 25/M04 A3026 RMK A01 T02531037  RH  014%=      5-min Rain = 0
KNH1 291912Z 29003KT 25/M03 A3026 RMK A01 T02521033  RH  015%=      5-min Rain = 0
KNH1 291913Z 34005KT 25/M03 A3026 RMK A01 T02521032  RH  015%=      5-min Rain = 0
KNH1 291914Z 32006KT 25/M03 A3026 RMK A01 T02531026  RH  016%=      5-min Rain = 0
KNH1 291915Z 32005KT 26/M03 A3026 RMK A01 T02561030  RH  015%=      5-min Rain = 0
KNH1 291916Z 31007KT 26/M03 A3026 RMK A01 T02571031  RH  015%=      5-min Rain = 0
KNH1 291917Z 32005KT 26/M03 A3026 RMK A01 T02551027  RH  015%=      5-min Rain = 0
KNH1 291918Z 28009KT 26/M03 A3026 RMK A01 T02561027  RH  015%=      5-min Rain = 0
KNH1 291919Z 28010KT 26/M02 A3026 RMK A01 T02571024  RH  016%=      5-min Rain = 0
KNH1 291920Z 28010KT 26/M03 A3026 RMK A01 T02571025  RH  015%=      5-min Rain = 0
KNH1 291921Z 27009KT 26/M03 A3025 RMK A01 T02571027  RH  015%=      5-min Rain = 0
KNH1 291922Z 27007KT 26/M03 A3025 RMK A01 T02551029  RH  015%=      5-min Rain = 0
KNH1 291923Z 28005KT 25/M03 A3025 RMK A01 T02531032  RH  015%=      5-min Rain = 0
KNH1 291924Z 27003KT 25/M03 A3025 RMK A01 T02511033  RH  015%=      5-min Rain = 0
KNH1 291925Z 25004KT 25/M03 A3025 RMK A01 T02511032  RH  015%=      5-min Rain = 0
KNH1 291926Z 23004KT 25/M03 A3025 RMK A01 T02511031  RH  015%=      5-min Rain = 0
KNH1 291927Z 23004KT 25/M03 A3025 RMK A01 T02501033  RH  015%=      5-min Rain = 0
KNH1 291928Z 27004KT 25/M03 A3025 RMK A01 T02501029  RH  016%=      5-min Rain = 0
KNH1 291929Z 26003KT 25/M03 A3025 RMK A01 T02521026  RH  016%=      5-min Rain = 0
KNH1 291930Z 25008KT 25/M03 A3025 RMK A01 T02541027  RH  015%=      5-min Rain = 0
KNH1 291931Z 27009G14KT 25/M03 A3025 RMK A01 T02541028  RH  015%=      5-min Rain = 0
KNH1 291932Z 28011KT 25/M03 A3025 RMK A01 T02541026  RH  016%=      5-min Rain = 0
KNH1 291933Z 26008KT 26/M03 A3025 RMK A01 T02551027  RH  015%=      5-min Rain = 0
KNH1 291934Z 28008KT 26/M03 A3025 RMK A01 T02561026  RH  015%=      5-min Rain = 0
KNH1 291935Z 27006KT 26/M03 A3025 RMK A01 T02551030  RH  015%=      5-min Rain = 0
KNH1 291936Z 29006KT 25/M03 A3024 RMK A01 T02511030  RH  015%=      5-min Rain = 0
KNH1 291937Z 29009KT 25/M02 A3024 RMK A01 T02521024  RH  016%=      5-min Rain = 0
KNH1 291938Z 28010G15KT 26/M03 A3024 RMK A01 T02561029  RH  015%=      5-min Rain = 0
KNH1 291939Z 27006KT 25/M03 A3024 RMK A01 T02541031  RH  015%=      5-min Rain = 0
KNH1 291940Z 31007KT 25/M03 A3024 RMK A01 T02531030  RH  015%=      5-min Rain = 0
KNH1 291941Z 31007KT 25/M03 A3024 RMK A01 T02531032  RH  015%=      5-min Rain = 0
KNH1 291942Z 33011KT 25/M03 A3024 RMK A01 T02521031  RH  015%=      5-min Rain = 0
KNH1 291943Z 33008KT 25/M03 A3024 RMK A01 T02521033  RH  015%=      5-min Rain = 0
KNH1 291944Z 31008G14KT 25/M03 A3024 RMK A01 T02521031  RH  015%=      5-min Rain = 0
KNH1 291945Z 33006KT 25/M03 A3024 RMK A01 T02531028  RH  015%=      5-min Rain = 0
KNH1 291946Z 31008KT 26/M03 A3024 RMK A01 T02551030  RH  015%=      5-min Rain = 0
KNH1 291947Z 33006KT 26/M03 A3024 RMK A01 T02561034  RH  015%=      5-min Rain = 0
KNH1 291948Z 31006KT 26/M04 A3024 RMK A01 T02551036  RH  014%=      5-min Rain = 0
KNH1 291949Z 33006KT 25/M03 A3024 RMK A01 T02541031  RH  015%=      5-min Rain = 0
KNH1 291950Z 33005KT 26/M03 A3024 RMK A01 T02561032  RH  015%=      5-min Rain = 0
KNH1 291951Z 35004KT 26/M04 A3023 RMK A01 T02581035  RH  014%=      5-min Rain = 0
KNH1 291952Z 33005KT 26/M04 A3023 RMK A01 T02571035  RH  014%=      5-min Rain = 0
KNH1 291953Z 32004KT 26/M04 A3023 RMK A01 T02561035  RH  014%=      5-min Rain = 0
KNH1 291954Z 30011KT 26/M03 A3023 RMK A01 T02561029  RH  015%=      5-min Rain = 0
KNH1 291955Z 30009G14KT 26/M03 A3023 RMK A01 T02571026  RH  015%=      5-min Rain = 0
KNH1 291956Z 30009KT 26/M03 A3023 RMK A01 T02581026  RH  015%=      5-min Rain = 0
KNH1 291957Z 30008KT 26/M03 A3023 RMK A01 T02561030  RH  015%=      5-min Rain = 0
KNH1 291958Z 29006KT 25/M03 A3023 RMK A01 T02541029  RH  015%=      5-min Rain = 0
KNH1 291959Z 28006G12KT 25/M03 A3023 RMK A01 T02511028  RH  016%=      5-min Rain = 0
KNH1 292000Z 27011KT 25/M03 A3023 RMK A01 T02531025  RH  016%=      5-min Rain = 0
KNH1 292001Z 28009KT 26/M02 A3023 RMK A01 T02571023  RH  016%=      5-min Rain = 0
KNH1 292002Z 27010KT 26/M02 A3023 RMK A01 T02621022  RH  015%=      5-min Rain = 0
KNH1 292003Z 28005KT 26/M03 A3023 RMK A01 T02611028  RH  015%=      5-min Rain = 0
KNH1 292004Z 28004KT 26/M03 A3023 RMK A01 T02571031  RH  015%=      5-min Rain = 0
KNH1 292005Z 27004KT 26/M03 A3023 RMK A01 T02551029  RH  015%=      5-min Rain = 0
KNH1 292006Z 31005KT 26/M03 A3023 RMK A01 T02551026  RH  015%=      5-min Rain = 0
KNH1 292007Z 31007KT 26/M03 A3023 RMK A01 T02591027  RH  015%=      5-min Rain = 0
KNH1 292008Z 31008G13KT 26/M03 A3023 RMK A01 T02611030  RH  015%=      5-min Rain = 0
KNH1 292009Z 31008KT 26/M03 A3023 RMK A01 T02611031  RH  014%=      5-min Rain = 0
KNH1 292010Z 30009KT 26/M03 A3023 RMK A01 T02621031  RH  014%=      5-min Rain = 0
KNH1 292011Z 33007KT 26/M03 A3023 RMK A01 T02611033  RH  014%=      5-min Rain = 0
KNH1 292012Z 35007KT 26/M03 A3023 RMK A01 T02601032  RH  014%=      5-min Rain = 0
KNH1 292013Z 34007KT 26/M03 A3023 RMK A01 T02611032  RH  014%=      5-min Rain = 0
KNH1 292014Z 31007KT 26/M03 A3023 RMK A01 T02621033  RH  014%=      5-min Rain = 0
KNH1 292015Z 29009KT 26/M03 A3023 RMK A01 T02621031  RH  014%=      5-min Rain = 0
KNH1 292016Z 28007KT 26/M04 A3023 RMK A01 T02611035  RH  014%=      5-min Rain = 0
KNH1 292017Z 30005KT 26/M04 A3023 RMK A01 T02581038  RH  014%=      5-min Rain = 0
KNH1 292018Z 27004KT 26/M03 A3023 RMK A01 T02561032  RH  015%=      5-min Rain = 0
KNH1 292019Z 26004KT 26/M03 A3022 RMK A01 T02581030  RH  015%=      5-min Rain = 0
KNH1 292020Z 25004KT 26/M03 A3022 RMK A01 T02581033  RH  014%=      5-min Rain = 0
KNH1 292021Z 24003KT 26/M03 A3022 RMK A01 T02581030  RH  015%=      5-min Rain = 0
KNH1 292022Z 28006KT 26/M03 A3022 RMK A01 T02591029  RH  015%=      5-min Rain = 0
KNH1 292023Z 32010KT 26/M03 A3022 RMK A01 T02601027  RH  015%=      5-min Rain = 0
KNH1 292024Z 33008KT 26/M03 A3022 RMK A01 T02611031  RH  014%=      5-min Rain = 0
KNH1 292025Z 34007KT 26/M03 A3022 RMK A01 T02601031  RH  014%=      5-min Rain = 0
KNH1 292026Z 33007KT 26/M03 A3022 RMK A01 T02611031  RH  014%=      5-min Rain = 0
KNH1 292027Z 29007KT 26/M03 A3022 RMK A01 T02621029  RH  015%=      5-min Rain = 0
KNH1 292028Z 28009KT 26/M03 A3022 RMK A01 T02631026  RH  015%=      5-min Rain = 0
KNH1 292029Z 26008KT 26/M03 A3022 RMK A01 T02621029  RH  015%=      5-min Rain = 0
KNH1 292030Z 29005KT 26/M03 A3022 RMK A01 T02601028  RH  015%=      5-min Rain = 0
KNH1 292031Z 30007KT 26/M03 A3022 RMK A01 T02611027  RH  015%=      5-min Rain = 0
KNH1 292032Z 30008KT 26/M03 A3022 RMK A01 T02611028  RH  015%=      5-min Rain = 0
KNH1 292033Z 30009KT 26/M03 A3022 RMK A01 T02621027  RH  015%=      5-min Rain = 0
KNH1 292034Z 27009KT 26/M03 A3022 RMK A01 T02641027  RH  015%=      5-min Rain = 0
KNH1 292035Z 28008KT 26/M03 A3022 RMK A01 T02641027  RH  015%=      5-min Rain = 0
KNH1 292036Z 29006KT 26/M03 A3022 RMK A01 T02631027  RH  015%=      5-min Rain = 0
KNH1 292037Z 29005KT 26/M03 A3021 RMK A01 T02621028  RH  015%=      5-min Rain = 0
KNH1 292038Z 30006KT 26/M03 A3021 RMK A01 T02611032  RH  014%=      5-min Rain = 0
KNH1 292039Z 31006KT 26/M03 A3021 RMK A01 T02591029  RH  015%=      5-min Rain = 0
KNH1 292040Z 29005KT 26/M03 A3021 RMK A01 T02601028  RH  015%=      5-min Rain = 0
KNH1 292041Z 29004KT 26/M03 A3021 RMK A01 T02601031  RH  015%=      5-min Rain = 0
KNH1 292042Z 31006KT 26/M03 A3021 RMK A01 T02601027  RH  015%=      5-min Rain = 0
KNH1 292043Z 33008KT 26/M03 A3021 RMK A01 T02611027  RH  015%=      5-min Rain = 0
KNH1 292044Z 33009KT 26/M03 A3021 RMK A01 T02611029  RH  015%=      5-min Rain = 0
KNH1 292045Z 30010KT 26/M03 A3021 RMK A01 T02621026  RH  015%=      5-min Rain = 0
KNH1 292046Z 30010KT 26/M03 A3021 RMK A01 T02631028  RH  015%=      5-min Rain = 0
KNH1 292047Z 30007KT 26/M03 A3021 RMK A01 T02631029  RH  014%=      5-min Rain = 0
KNH1 292048Z 28007KT 26/M03 A3021 RMK A01 T02621027  RH  015%=      5-min Rain = 0
KNH1 292049Z 30008KT 26/M03 A3021 RMK A01 T02621026  RH  015%=      5-min Rain = 0
KNH1 292050Z 31007KT 26/M02 A3021 RMK A01 T02641024  RH  015%=      5-min Rain = 0
KNH1 292051Z 34007KT 27/M03 A3021 RMK A01 T02661025  RH  015%=      5-min Rain = 0
KNH1 292052Z 32006KT 27/M03 A3021 RMK A01 T02651025  RH  015%=      5-min Rain = 0
KNH1 292053Z 34007KT 26/M03 A3021 RMK A01 T02641026  RH  015%=      5-min Rain = 0
KNH1 292054Z 35008KT 26/M03 A3021 RMK A01 T02641026  RH  015%=      5-min Rain = 0
KNH1 292055Z 35006KT 26/M03 A3021 RMK A01 T02641028  RH  015%=      5-min Rain = 0
KNH1 292056Z 31005KT 26/M03 A3021 RMK A01 T02641028  RH  014%=      5-min Rain = 0
KNH1 292057Z 27006KT 26/M03 A3021 RMK A01 T02641027  RH  015%=      5-min Rain = 0
KNH1 292058Z 26004KT 26/M03 A3021 RMK A01 T02631027  RH  015%=      5-min Rain = 0
KNH1 292059Z 25004KT 26/M03 A3021 RMK A01 T02621027  RH  015%=      5-min Rain = 0
KNH1 292100Z 27006KT 26/M02 A302 RMK A01 T02631022  RH  015%=      5-min Rain = 0
KNH1 292101Z 28008KT 27/M02 A302 RMK A01 T02661024  RH  015%=      5-min Rain = 0
KNH1 292102Z 27010KT 27/M02 A302 RMK A01 T02661024  RH  015%=      5-min Rain = 0
KNH1 292103Z 26007KT 27/M03 A302 RMK A01 T02651028  RH  014%=      5-min Rain = 0
KNH1 292104Z 27007KT 26/M03 A302 RMK A01 T02631026  RH  015%=      5-min Rain = 0
KNH1 292105Z 26009KT 27/M02 A302 RMK A01 T02651023  RH  015%=      5-min Rain = 0
KNH1 292106Z 27012KT 27/M03 A302 RMK A01 T02661025  RH  015%=      5-min Rain = 0
KNH1 292107Z 28012KT 27/M02 A302 RMK A01 T02671022  RH  015%=      5-min Rain = 0
KNH1 292108Z 27010KT 27/M02 A302 RMK A01 T02691023  RH  015%=      5-min Rain = 0
KNH1 292109Z 26009KT 27/M03 A302 RMK A01 T02671026  RH  014%=      5-min Rain = 0
KNH1 292110Z 27010KT 27/M03 A302 RMK A01 T02661025  RH  015%=      5-min Rain = 0
KNH1 292111Z 28009KT 27/M03 A302 RMK A01 T02651025  RH  015%=      5-min Rain = 0
KNH1 292112Z 26009KT 27/M02 A302 RMK A01 T02661022  RH  015%=      5-min Rain = 0
KNH1 292113Z 26010KT 27/M03 A302 RMK A01 T02671025  RH  014%=      5-min Rain = 0
KNH1 292114Z 26009KT 27/M03 A302 RMK A01 T02661025  RH  015%=      5-min Rain = 0
KNH1 292115Z 27009KT 27/M02 A302 RMK A01 T02661024  RH  015%=      5-min Rain = 0
KNH1 292116Z 27009KT 27/M03 A302 RMK A01 T02651028  RH  014%=      5-min Rain = 0
KNH1 292117Z 27008KT 26/M03 A302 RMK A01 T02621025  RH  015%=      5-min Rain = 0
KNH1 292118Z 28009KT 27/M02 A302 RMK A01 T02661023  RH  015%=      5-min Rain = 0
KNH1 292119Z 28007KT 27/M03 A302 RMK A01 T02661027  RH  014%=      5-min Rain = 0
KNH1 292120Z 28009KT 26/M03 A302 RMK A01 T02641026  RH  015%=      5-min Rain = 0
KNH1 292121Z 29010KT 26/M02 A302 RMK A01 T02631024  RH  015%=      5-min Rain = 0
KNH1 292122Z 29007KT 26/M03 A302 RMK A01 T02631029  RH  014%=      5-min Rain = 0
KNH1 292123Z 31006KT 26/M03 A302 RMK A01 T02611027  RH  015%=      5-min Rain = 0
KNH1 292124Z 28008KT 26/M03 A302 RMK A01 T02631025  RH  015%=      5-min Rain = 0
KNH1 292125Z 29008KT 26/M03 A302 RMK A01 T02641026  RH  015%=      5-min Rain = 0
KNH1 292126Z 29005KT 26/M03 A302 RMK A01 T02631029  RH  014%=      5-min Rain = 0
KNH1 292127Z 28005KT 26/M03 A302 RMK A01 T02621026  RH  015%=      5-min Rain = 0
KNH1 292128Z 26005KT 26/M03 A302 RMK A01 T02621027  RH  015%=      5-min Rain = 0
KNH1 292129Z 29004KT 26/M03 A302 RMK A01 T02621029  RH  015%=      5-min Rain = 0
KNH1 292130Z 24003KT 26/M03 A302 RMK A01 T02621029  RH  015%=      5-min Rain = 0
KNH1 292131Z 25003KT 26/M03 A302 RMK A01 T02621026  RH  015%=      5-min Rain = 0
KNH1 292132Z 23006KT 27/M02 A302 RMK A01 T02651022  RH  015%=      5-min Rain = 0
KNH1 292133Z 23007KT 27/M03 A302 RMK A01 T02651027  RH  014%=      5-min Rain = 0
KNH1 292134Z 23004KT 26/M03 A302 RMK A01 T02641027  RH  015%=      5-min Rain = 0
KNH1 292135Z 26005G10KT 26/M03 A302 RMK A01 T02641025  RH  015%=      5-min Rain = 0
KNH1 292136Z 32008KT 27/M02 A302 RMK A01 T02661023  RH  015%=      5-min Rain = 0
KNH1 292137Z 30008KT 27/M03 A302 RMK A01 T02671026  RH  014%=      5-min Rain = 0
KNH1 292138Z 29009KT 27/M03 A302 RMK A01 T02661028  RH  014%=      5-min Rain = 0
KNH1 292139Z 30005KT 26/M03 A302 RMK A01 T02641028  RH  014%=      5-min Rain = 0
KNH1 292140Z 33008KT 27/M03 A302 RMK A01 T02661025  RH  015%=      5-min Rain = 0
KNH1 292141Z 31009KT 27/M03 A302 RMK A01 T02661029  RH  014%=      5-min Rain = 0
KNH1 292142Z 31007KT 27/M03 A302 RMK A01 T02661026  RH  014%=      5-min Rain = 0
KNH1 292143Z 33006KT 27/M03 A3019 RMK A01 T02661030  RH  014%=      5-min Rain = 0
KNH1 292144Z 34005KT 27/M03 A3019 RMK A01 T02651027  RH  014%=      5-min Rain = 0
KNH1 292145Z 35006KT 27/M03 A3019 RMK A01 T02651026  RH  015%=      5-min Rain = 0
KNH1 292146Z 34006KT 27/M03 A3019 RMK A01 T02661028  RH  014%=      5-min Rain = 0
KNH1 292147Z 33006KT 26/M03 A3019 RMK A01 T02641028  RH  014%=      5-min Rain = 0
KNH1 292148Z 30008KT 27/M03 A3019 RMK A01 T02661026  RH  015%=      5-min Rain = 0
KNH1 292149Z 33006KT 27/M03 A3019 RMK A01 T02661030  RH  014%=      5-min Rain = 0
KNH1 292150Z 34006KT 27/M03 A3019 RMK A01 T02661029  RH  014%=      5-min Rain = 0
KNH1 292151Z 32005KT 27/M03 A3019 RMK A01 T02661030  RH  014%=      5-min Rain = 0
KNH1 292152Z 33006KT 27/M03 A3019 RMK A01 T02661029  RH  014%=      5-min Rain = 0
KNH1 292153Z 30005KT 27/M03 A3019 RMK A01 T02651028  RH  014%=      5-min Rain = 0
KNH1 292154Z 29004KT 27/M03 A3019 RMK A01 T02651029  RH  014%=      5-min Rain = 0
KNH1 292155Z 32005G10KT 27/M03 A3019 RMK A01 T02651029  RH  014%=      5-min Rain = 0
KNH1 292156Z 33010KT 27/M03 A3019 RMK A01 T02651026  RH  015%=      5-min Rain = 0
KNH1 292157Z 27009KT 27/M02 A3019 RMK A01 T02671023  RH  015%=      5-min Rain = 0
KNH1 292158Z 29007KT 27/M03 A3019 RMK A01 T02681027  RH  014%=      5-min Rain = 0
KNH1 292159Z 29006KT 27/M03 A3019 RMK A01 T02661030  RH  014%=      5-min Rain = 0
KNH1 292200Z 27006KT 27/M03 A3019 RMK A01 T02651026  RH  015%=      5-min Rain = 0
KNH1 292201Z 28007KT 27/M03 A3019 RMK A01 T02661025  RH  015%=      5-min Rain = 0
KNH1 292202Z 30011KT 27/M03 A3019 RMK A01 T02671025  RH  014%=      5-min Rain = 0
KNH1 292203Z 30009KT 27/M03 A3019 RMK A01 T02671029  RH  014%=      5-min Rain = 0
KNH1 292204Z 31006KT 27/M03 A3019 RMK A01 T02661029  RH  014%=      5-min Rain = 0
KNH1 292205Z 32004KT 27/M03 A3019 RMK A01 T02661028  RH  014%=      5-min Rain = 0
KNH1 292206Z 32005KT 27/M03 A3019 RMK A01 T02661027  RH  014%=      5-min Rain = 0
KNH1 292207Z 30009KT 27/M03 A3019 RMK A01 T02671027  RH  014%=      5-min Rain = 0
KNH1 292208Z 31007KT 27/M03 A3019 RMK A01 T02671027  RH  014%=      5-min Rain = 0
KNH1 292209Z 30007KT 27/M03 A3019 RMK A01 T02661029  RH  014%=      5-min Rain = 0
KNH1 292210Z 31005KT 27/M03 A3019 RMK A01 T02651028  RH  014%=      5-min Rain = 0
KNH1 292211Z 32006KT 27/M03 A3019 RMK A01 T02661025  RH  015%=      5-min Rain = 0
KNH1 292212Z 32007KT 27/M02 A3019 RMK A01 T02691024  RH  014%=      5-min Rain = 0
KNH1 292213Z 32005G10KT 27/M03 A3019 RMK A01 T02701029  RH  014%=      5-min Rain = 0
KNH1 292214Z 32007KT 27/M03 A3019 RMK A01 T02691028  RH  014%=      5-min Rain = 0
KNH1 292215Z 30007KT 27/M03 A3019 RMK A01 T02691027  RH  014%=      5-min Rain = 0
KNH1 292216Z 30007KT 27/M03 A3019 RMK A01 T02691027  RH  014%=      5-min Rain = 0
KNH1 292217Z 29007KT 27/M03 A3019 RMK A01 T02701027  RH  014%=      5-min Rain = 0
KNH1 292218Z 31007KT 27/M03 A3019 RMK A01 T02691029  RH  014%=      5-min Rain = 0
KNH1 292219Z 33006KT 27/M03 A3019 RMK A01 T02691031  RH  014%=      5-min Rain = 0
KNH1 292220Z 33006KT 27/M03 A3019 RMK A01 T02681031  RH  014%=      5-min Rain = 0
KNH1 292221Z 34006KT 27/M03 A3019 RMK A01 T02671030  RH  014%=      5-min Rain = 0
KNH1 292222Z 34004KT 27/M03 A3019 RMK A01 T02671032  RH  014%=      5-min Rain = 0
KNH1 292223Z 30002KT 27/M03 A3019 RMK A01 T02671033  RH  014%=      5-min Rain = 0
KNH1 292224Z 29003KT 27/M03 A3019 RMK A01 T02671028  RH  014%=      5-min Rain = 0
KNH1 292225Z 27005KT 27/M03 A3019 RMK A01 T02681026  RH  014%=      5-min Rain = 0
KNH1 292226Z 26008KT 27/M03 A3019 RMK A01 T02691027  RH  014%=      5-min Rain = 0
KNH1 292227Z 27008KT 27/M03 A3019 RMK A01 T02701026  RH  014%=      5-min Rain = 0
KNH1 292228Z 29005KT 27/M03 A3019 RMK A01 T02701030  RH  014%=      5-min Rain = 0
KNH1 292229Z 30005KT 27/M03 A3019 RMK A01 T02681029  RH  014%=      5-min Rain = 0
KNH1 292230Z 29005KT 27/M03 A3019 RMK A01 T02671031  RH  014%=      5-min Rain = 0
KNH1 292231Z 30007KT 27/M03 A3019 RMK A01 T02671025  RH  015%=      5-min Rain = 0
KNH1 292232Z 31006KT 27/M03 A3019 RMK A01 T02681028  RH  014%=      5-min Rain = 0
KNH1 292233Z 30007KT 27/M03 A3019 RMK A01 T02691028  RH  014%=      5-min Rain = 0
KNH1 292234Z 27005KT 27/M03 A3019 RMK A01 T02691028  RH  014%=      5-min Rain = 0
KNH1 292235Z 25007KT 27/M03 A3019 RMK A01 T02691026  RH  014%=      5-min Rain = 0
KNH1 292236Z 27009KT 27/M03 A3018 RMK A01 T02691027  RH  014%=      5-min Rain = 0
KNH1 292237Z 26009KT 27/M03 A3018 RMK A01 T02691027  RH  014%=      5-min Rain = 0
KNH1 292238Z 25009KT 27/M03 A3018 RMK A01 T02681029  RH  014%=      5-min Rain = 0
KNH1 292239Z 26009KT 27/M03 A3018 RMK A01 T02661029  RH  014%=      5-min Rain = 0
KNH1 292240Z 26007KT 27/M03 A3018 RMK A01 T02661028  RH  014%=      5-min Rain = 0
KNH1 292241Z 26005KT 27/M03 A3018 RMK A01 T02671028  RH  014%=      5-min Rain = 0
KNH1 292242Z 27007KT 27/M03 A3018 RMK A01 T02671027  RH  014%=      5-min Rain = 0
KNH1 292243Z 27008KT 27/M03 A3018 RMK A01 T02681029  RH  014%=      5-min Rain = 0
KNH1 292244Z 28007KT 27/M03 A3018 RMK A01 T02661031  RH  014%=      5-min Rain = 0
KNH1 292245Z 27005KT 27/M03 A3018 RMK A01 T02651029  RH  014%=      5-min Rain = 0
KNH1 292246Z 27006KT 27/M03 A3018 RMK A01 T02651029  RH  014%=      5-min Rain = 0
KNH1 292247Z 28006KT 27/M03 A3018 RMK A01 T02651028  RH  014%=      5-min Rain = 0
KNH1 292248Z 26004KT 27/M03 A3018 RMK A01 T02661029  RH  014%=      5-min Rain = 0
KNH1 292249Z 26004KT 27/M03 A3018 RMK A01 T02651027  RH  015%=      5-min Rain = 0
KNH1 292250Z 29005KT 27/M03 A3018 RMK A01 T02671025  RH  015%=      5-min Rain = 0
KNH1 292251Z 27004KT 27/M03 A3018 RMK A01 T02691027  RH  014%=      5-min Rain = 0
KNH1 292252Z 29007KT 27/M03 A3018 RMK A01 T02691026  RH  014%=      5-min Rain = 0
KNH1 292253Z 29008KT 27/M03 A3018 RMK A01 T02691030  RH  014%=      5-min Rain = 0
KNH1 292254Z 30006KT 27/M03 A3018 RMK A01 T02681031  RH  014%=      5-min Rain = 0
KNH1 292255Z 29009KT 27/M03 A3018 RMK A01 T02671031  RH  014%=      5-min Rain = 0
KNH1 292256Z 26009KT 27/M03 A3018 RMK A01 T02671029  RH  014%=      5-min Rain = 0
KNH1 292257Z 28008KT 27/M03 A3018 RMK A01 T02671029  RH  014%=      5-min Rain = 0
KNH1 292258Z 28006KT 27/M03 A3018 RMK A01 T02671028  RH  014%=      5-min Rain = 0
KNH1 292259Z 28007KT 27/M03 A3018 RMK A01 T02681027  RH  014%=      5-min Rain = 0
KNH1 292300Z 27008KT 27/M03 A3018 RMK A01 T02681029  RH  014%=      5-min Rain = 0
KNH1 292301Z 28008KT 27/M03 A3018 RMK A01 T02681031  RH  014%=      5-min Rain = 0
KNH1 292302Z 27007KT 27/M03 A3018 RMK A01 T02671030  RH  014%=      5-min Rain = 0
KNH1 292303Z 26010KT 27/M03 A3018 RMK A01 T02671029  RH  014%=      5-min Rain = 0
KNH1 292304Z 27009KT 27/M03 A3018 RMK A01 T02671030  RH  014%=      5-min Rain = 0
KNH1 292305Z 27007KT 27/M03 A3018 RMK A01 T02661030  RH  014%=      5-min Rain = 0
KNH1 292306Z 28008KT 27/M03 A3018 RMK A01 T02671027  RH  014%=      5-min Rain = 0
KNH1 292307Z 26008KT 27/M03 A3018 RMK A01 T02671030  RH  014%=      5-min Rain = 0
KNH1 292308Z 28007KT 27/M03 A3018 RMK A01 T02671030  RH  014%=      5-min Rain = 0
KNH1 292309Z 28007KT 27/M03 A3018 RMK A01 T02671029  RH  014%=      5-min Rain = 0
KNH1 292310Z 28005KT 27/M03 A3018 RMK A01 T02661028  RH  014%=      5-min Rain = 0
KNH1 292311Z 27006KT 27/M03 A3018 RMK A01 T02661030  RH  014%=      5-min Rain = 0
KNH1 292312Z 27006KT 27/M03 A3018 RMK A01 T02661031  RH  014%=      5-min Rain = 0
KNH1 292313Z 29006KT 27/M03 A3018 RMK A01 T02671029  RH  014%=      5-min Rain = 0
KNH1 292314Z 29003KT 27/M03 A3018 RMK A01 T02671029  RH  014%=      5-min Rain = 0
KNH1 292315Z 26005KT 27/M03 A3018 RMK A01 T02671030  RH  014%=      5-min Rain = 0
KNH1 292316Z 24006KT 27/M03 A3018 RMK A01 T02671029  RH  014%=      5-min Rain = 0
KNH1 292317Z 26007KT 27/M03 A3018 RMK A01 T02671031  RH  014%=      5-min Rain = 0
KNH1 292318Z 27008KT 27/M03 A3018 RMK A01 T02661030  RH  014%=      5-min Rain = 0
KNH1 292319Z 28008KT 27/M03 A3018 RMK A01 T02661031  RH  014%=      5-min Rain = 0
KNH1 292320Z 28007KT 27/M03 A3018 RMK A01 T02651029  RH  014%=      5-min Rain = 0
KNH1 292321Z 27009KT 27/M03 A3018 RMK A01 T02651031  RH  014%=      5-min Rain = 0
KNH1 292322Z 28007KT 27/M03 A3018 RMK A01 T02661029  RH  014%=      5-min Rain = 0
KNH1 292323Z 29008KT 27/M03 A3018 RMK A01 T02651028  RH  014%=      5-min Rain = 0
KNH1 292324Z 28007KT 27/M03 A3018 RMK A01 T02661027  RH  014%=      5-min Rain = 0
KNH1 292325Z 29006KT 27/M03 A3018 RMK A01 T02661025  RH  015%=      5-min Rain = 0
KNH1 292326Z 29007KT 27/M03 A3018 RMK A01 T02661027  RH  014%=      5-min Rain = 0
KNH1 292327Z 28007KT 27/M03 A3018 RMK A01 T02661028  RH  014%=      5-min Rain = 0
KNH1 292328Z 27007KT 27/M03 A3018 RMK A01 T02651029  RH  014%=      5-min Rain = 0
KNH1 292329Z 28008KT 27/M03 A3018 RMK A01 T02651030  RH  014%=      5-min Rain = 0
KNH1 292330Z 28006KT 26/M03 A3018 RMK A01 T02641031  RH  014%=      5-min Rain = 0
KNH1 292331Z 29006KT 26/M03 A3017 RMK A01 T02631030  RH  014%=      5-min Rain = 0
KNH1 292332Z 29006KT 26/M03 A3017 RMK A01 T02631030  RH  014%=      5-min Rain = 0
KNH1 292333Z 29008KT 26/M03 A3017 RMK A01 T02631029  RH  014%=      5-min Rain = 0
KNH1 292334Z 29008KT 26/M03 A3017 RMK A01 T02631029  RH  014%=      5-min Rain = 0
KNH1 292335Z 28007KT 26/M03 A3017 RMK A01 T02631030  RH  014%=      5-min Rain = 0
KNH1 292336Z 29007KT 26/M03 A3017 RMK A01 T02621031  RH  014%=      5-min Rain = 0
KNH1 292337Z 28006KT 26/M03 A3017 RMK A01 T02621029  RH  015%=      5-min Rain = 0
KNH1 292338Z 29006KT 26/M03 A3017 RMK A01 T02621031  RH  014%=      5-min Rain = 0
KNH1 292339Z 27006KT 26/M03 A3017 RMK A01 T02621030  RH  014%=      5-min Rain = 0
KNH1 292340Z 25006KT 26/M03 A3017 RMK A01 T02621029  RH  015%=      5-min Rain = 0
KNH1 292341Z 25005KT 26/M03 A3017 RMK A01 T02621028  RH  015%=      5-min Rain = 0
KNH1 292342Z 25006KT 26/M03 A3017 RMK A01 T02621028  RH  015%=      5-min Rain = 0
KNH1 292343Z 25006KT 26/M03 A3017 RMK A01 T02631028  RH  015%=      5-min Rain = 0
KNH1 292344Z 25005KT 26/M03 A3017 RMK A01 T02621027  RH  015%=      5-min Rain = 0
KNH1 292345Z 26006KT 26/M03 A3017 RMK A01 T02631025  RH  015%=      5-min Rain = 0
KNH1 292346Z 26007KT 26/M03 A3017 RMK A01 T02621027  RH  015%=      5-min Rain = 0
KNH1 292347Z 26006KT 26/M03 A3017 RMK A01 T02621027  RH  015%=      5-min Rain = 0
KNH1 292348Z 27007KT 26/M03 A3017 RMK A01 T02621026  RH  015%=      5-min Rain = 0
KNH1 292349Z 27006KT 26/M03 A3017 RMK A01 T02611029  RH  015%=      5-min Rain = 0
KNH1 292350Z 26007KT 26/M03 A3017 RMK A01 T02611029  RH  015%=      5-min Rain = 0
KNH1 292351Z 27009KT 26/M03 A3017 RMK A01 T02611031  RH  014%=      5-min Rain = 0
KNH1 292352Z 28007KT 26/M03 A3017 RMK A01 T02601033  RH  014%=      5-min Rain = 0
KNH1 292353Z 28006KT 26/M03 A3017 RMK A01 T02601030  RH  015%=      5-min Rain = 0
KNH1 292354Z 27005KT 26/M03 A3017 RMK A01 T02601029  RH  015%=      5-min Rain = 0
KNH1 292355Z 28006KT 26/M03 A3017 RMK A01 T02591030  RH  015%=      5-min Rain = 0
KNH1 292356Z 27007KT 26/M03 A3017 RMK A01 T02591031  RH  015%=      5-min Rain = 0
KNH1 292357Z 28006KT 26/M03 A3017 RMK A01 T02581031  RH  015%=      5-min Rain = 0
KNH1 292358Z 28006KT 26/M03 A3017 RMK A01 T02581030  RH  015%=      5-min Rain = 0
KNH1 292359Z 28004KT 26/M03 A3017 RMK A01 T02581028  RH  015%=      5-min Rain = 0
KNH1 300000Z 27003KT 26/M03 A3017 RMK A01 T02571026  RH  015%=      5-min Rain = 0
KNH1 300001Z 26003KT 26/M02 A3017 RMK A01 T02571024  RH  016%=      5-min Rain = 0
KNH1 300002Z 26004KT 26/M02 A3017 RMK A01 T02571022  RH  016%=      5-min Rain = 0
KNH1 300003Z 26004KT 26/M02 A3017 RMK A01 T02561023  RH  016%=      5-min Rain = 0
KNH1 300004Z 26004KT 26/M02 A3017 RMK A01 T02561022  RH  016%=      5-min Rain = 0
KNH1 300005Z 24003KT 26/M02 A3017 RMK A01 T02551020  RH  016%=      5-min Rain = 0
KNH1 300006Z 25004KT 25/M02 A3017 RMK A01 T02541019  RH  016%=      5-min Rain = 0
KNH1 300007Z 24004KT 25/M02 A3017 RMK A01 T02531018  RH  017%=      5-min Rain = 0
KNH1 300008Z 23004KT 25/M02 A3017 RMK A01 T02521018  RH  017%=      5-min Rain = 0
KNH1 300009Z 22004KT 25/M02 A3017 RMK A01 T02511017  RH  017%=      5-min Rain = 0
KNH1 300010Z 22004KT 25/M02 A3017 RMK A01 T02501015  RH  017%=      5-min Rain = 0
KNH1 300011Z 23004KT 25/M02 A3017 RMK A01 T02491015  RH  017%=      5-min Rain = 0
KNH1 300012Z 23004KT 25/M02 A3017 RMK A01 T02481015  RH  017%=      5-min Rain = 0
KNH1 300013Z 22004KT 25/M01 A3017 RMK A01 T02471014  RH  018%=      5-min Rain = 0
KNH1 300014Z 22004KT 25/M01 A3017 RMK A01 T02451014  RH  018%=      5-min Rain = 0
KNH1 300015Z 22004KT 24/M01 A3017 RMK A01 T02441014  RH  018%=      5-min Rain = 0
KNH1 300016Z 22005KT 24/M01 A3017 RMK A01 T02431014  RH  018%=      5-min Rain = 0
KNH1 300017Z 22005KT 24/M01 A3017 RMK A01 T02411014  RH  018%=      5-min Rain = 0
KNH1 300018Z 22005KT 24/M02 A3017 RMK A01 T02401015  RH  018%=      5-min Rain = 0
KNH1 300019Z 22005KT 24/M02 A3017 RMK A01 T02381015  RH  019%=      5-min Rain = 0
KNH1 300020Z 22006KT 24/M02 A3017 RMK A01 T02371015  RH  019%=      5-min Rain = 0
KNH1 300021Z 21005KT 24/M02 A3017 RMK A01 T02361016  RH  019%=      5-min Rain = 0
KNH1 300022Z 21005KT 23/M02 A3017 RMK A01 T02341015  RH  019%=      5-min Rain = 0
KNH1 300023Z 21005KT 23/M02 A3017 RMK A01 T02331015  RH  019%=      5-min Rain = 0
KNH1 300024Z 21005KT 23/M01 A3017 RMK A01 T02311014  RH  020%=      5-min Rain = 0
KNH1 300025Z 21005KT 23/M01 A3017 RMK A01 T02301012  RH  020%=      5-min Rain = 0
KNH1 300026Z 20005KT 23/M01 A3017 RMK A01 T02281011  RH  020%=      5-min Rain = 0
KNH1 300027Z 21005KT 23/M01 A3017 RMK A01 T02271010  RH  021%=      5-min Rain = 0
KNH1 300028Z 21005KT 23/M01 A3017 RMK A01 T02251010  RH  021%=      5-min Rain = 0
KNH1 300029Z 20005KT 23/M01 A3017 RMK A01 T02251011  RH  021%=      5-min Rain = 0
KNH1 300030Z 20005KT 23/M01 A3017 RMK A01 T02251012  RH  021%=      5-min Rain = 0
KNH1 300031Z 20005KT 23/M01 A3017 RMK A01 T02251011  RH  021%=      5-min Rain = 0
KNH1 300032Z 20005KT 23/M01 A3017 RMK A01 T02251012  RH  021%=      5-min Rain = 0
KNH1 300033Z 20005KT 23/M01 A3017 RMK A01 T02251013  RH  020%=      5-min Rain = 0
KNH1 300034Z 20005KT 23/M01 A3017 RMK A01 T02251014  RH  020%=      5-min Rain = 0
KNH1 300035Z 20005KT 23/M01 A3017 RMK A01 T02251013  RH  020%=      5-min Rain = 0
KNH1 300036Z 20005KT 22/M01 A3017 RMK A01 T02241012  RH  021%=      5-min Rain = 0
KNH1 300037Z 20005KT 22/M01 A3017 RMK A01 T02231012  RH  021%=      5-min Rain = 0
KNH1 300038Z 20005KT 22/M01 A3017 RMK A01 T02211013  RH  021%=      5-min Rain = 0
KNH1 300039Z 20004KT 22/M01 A3017 RMK A01 T02211014  RH  021%=      5-min Rain = 0
KNH1 300040Z 20004KT 22/M01 A3017 RMK A01 T02201014  RH  021%=      5-min Rain = 0
KNH1 300041Z 21005KT 22/M02 A3017 RMK A01 T02201015  RH  021%=      5-min Rain = 0
KNH1 300042Z 20004KT 22/M02 A3017 RMK A01 T02201016  RH  021%=      5-min Rain = 0
KNH1 300043Z 20004KT 22/M02 A3017 RMK A01 T02201015  RH  021%=      5-min Rain = 0
KNH1 300044Z 20005KT 22/M01 A3017 RMK A01 T02181014  RH  021%=      5-min Rain = 0
KNH1 300045Z 20005KT 22/M01 A3017 RMK A01 T02171014  RH  021%=      5-min Rain = 0
KNH1 300046Z 20005KT 22/M02 A3017 RMK A01 T02171015  RH  021%=      5-min Rain = 0
KNH1 300047Z 20005KT 22/M01 A3017 RMK A01 T02171014  RH  021%=      5-min Rain = 0
KNH1 300048Z 20005KT 22/M01 A3017 RMK A01 T02171013  RH  021%=      5-min Rain = 0
KNH1 300049Z 20005KT 22/M01 A3017 RMK A01 T02171013  RH  021%=      5-min Rain = 0
KNH1 300050Z 20006KT 22/M01 A3017 RMK A01 T02161013  RH  022%=      5-min Rain = 0
KNH1 300051Z 20006KT 21/M01 A3017 RMK A01 T02141012  RH  022%=      5-min Rain = 0
KNH1 300052Z 21006KT 21/M01 A3017 RMK A01 T02111012  RH  022%=      5-min Rain = 0
KNH1 300053Z 21006KT 21/M01 A3017 RMK A01 T02091012  RH  023%=      5-min Rain = 0
KNH1 300054Z 21006KT 21/M01 A3017 RMK A01 T02081012  RH  023%=      5-min Rain = 0
KNH1 300055Z 21006KT 21/M01 A3017 RMK A01 T02071012  RH  023%=      5-min Rain = 0
KNH1 300056Z 20007KT 21/M01 A3017 RMK A01 T02061012  RH  023%=      5-min Rain = 0
KNH1 300057Z 20007KT 21/M01 A3017 RMK A01 T02061013  RH  023%=      5-min Rain = 0
KNH1 300058Z 21007KT 21/M01 A3017 RMK A01 T02051013  RH  023%=      5-min Rain = 0
KNH1 300059Z 21007KT 20/M01 A3017 RMK A01 T02041013  RH  023%=      5-min Rain = 0
KNH1 300100Z 21007KT 20/M01 A3017 RMK A01 T02021013  RH  024%=      5-min Rain = 0
KNH1 300101Z 20007KT 20/M01 A3017 RMK A01 T02011013  RH  024%=      5-min Rain = 0
KNH1 300102Z 20006KT 20/M01 A3017 RMK A01 T02001013  RH  024%=      5-min Rain = 0
KNH1 300103Z 20006KT 20/M01 A3017 RMK A01 T02001014  RH  024%=      5-min Rain = 0
KNH1 300104Z 20007KT 20/M01 A3017 RMK A01 T02001014  RH  024%=      5-min Rain = 0
KNH1 300105Z 20006KT 20/M02 A3017 RMK A01 T02001015  RH  024%=      5-min Rain = 0
KNH1 300106Z 20006KT 20/M01 A3017 RMK A01 T01991014  RH  024%=      5-min Rain = 0
KNH1 300107Z 20006KT 20/M02 A3017 RMK A01 T01981015  RH  024%=      5-min Rain = 0
KNH1 300108Z 20007KT 20/M02 A3017 RMK A01 T01971016  RH  024%=      5-min Rain = 0
KNH1 300109Z 21007KT 20/M02 A3017 RMK A01 T01971016  RH  024%=      5-min Rain = 0
KNH1 300110Z 21007KT 20/M02 A3017 RMK A01 T01961016  RH  024%=      5-min Rain = 0
KNH1 300111Z 21007KT 20/M02 A3017 RMK A01 T01961017  RH  024%=      5-min Rain = 0
KNH1 300112Z 21006KT 20/M02 A3017 RMK A01 T01951016  RH  024%=      5-min Rain = 0
KNH1 300113Z 21006KT 20/M02 A3017 RMK A01 T01951016  RH  024%=      5-min Rain = 0
KNH1 300114Z 21006KT 19/M02 A3017 RMK A01 T01941016  RH  024%=      5-min Rain = 0
KNH1 300115Z 21006KT 19/M02 A3017 RMK A01 T01941016  RH  024%=      5-min Rain = 0
KNH1 300116Z 21006KT 19/M02 A3017 RMK A01 T01931016  RH  024%=      5-min Rain = 0
KNH1 300117Z 21006KT 19/M02 A3017 RMK A01 T01931016  RH  024%=      5-min Rain = 0
KNH1 300118Z 21007KT 19/M02 A3018 RMK A01 T01931016  RH  024%=      5-min Rain = 0
KNH1 300119Z 21007KT 19/M02 A3018 RMK A01 T01921017  RH  024%=      5-min Rain = 0
KNH1 300120Z 21007KT 19/M02 A3018 RMK A01 T01911016  RH  024%=      5-min Rain = 0
KNH1 300121Z 21007KT 19/M02 A3018 RMK A01 T01911016  RH  025%=      5-min Rain = 0
KNH1 300122Z 21007KT 19/M02 A3018 RMK A01 T01901016  RH  025%=      5-min Rain = 0
KNH1 300123Z 21007KT 19/M02 A3018 RMK A01 T01891017  RH  025%=      5-min Rain = 0
KNH1 300124Z 21007KT 19/M02 A3018 RMK A01 T01881017  RH  025%=      5-min Rain = 0
KNH1 300125Z 21007KT 19/M02 A3018 RMK A01 T01871016  RH  025%=      5-min Rain = 0
KNH1 300126Z 21007KT 19/M02 A3018 RMK A01 T01871016  RH  025%=      5-min Rain = 0
KNH1 300127Z 21007KT 19/M02 A3018 RMK A01 T01861016  RH  025%=      5-min Rain = 0
KNH1 300128Z 21008KT 19/M02 A3018 RMK A01 T01861016  RH  025%=      5-min Rain = 0
KNH1 300129Z 21007KT 19/M02 A3018 RMK A01 T01851017  RH  025%=      5-min Rain = 0
KNH1 300130Z 21007KT 18/M02 A3018 RMK A01 T01841017  RH  026%=      5-min Rain = 0
KNH1 300131Z 20007KT 18/M02 A3018 RMK A01 T01831017  RH  026%=      5-min Rain = 0
KNH1 300132Z 20007KT 18/M02 A3018 RMK A01 T01821017  RH  026%=      5-min Rain = 0
KNH1 300133Z 20007KT 18/M02 A3018 RMK A01 T01821017  RH  026%=      5-min Rain = 0
KNH1 300134Z 20007KT 18/M02 A3018 RMK A01 T01821018  RH  026%=      5-min Rain = 0
KNH1 300135Z 21008KT 18/M02 A3018 RMK A01 T01821019  RH  025%=      5-min Rain = 0
KNH1 300136Z 21008KT 18/M02 A3018 RMK A01 T01841019  RH  025%=      5-min Rain = 0
KNH1 300137Z 21007KT 19/M02 A3018 RMK A01 T01851019  RH  025%=      5-min Rain = 0
KNH1 300138Z 20007KT 19/M02 A3018 RMK A01 T01851019  RH  025%=      5-min Rain = 0
KNH1 300139Z 21007KT 19/M02 A3018 RMK A01 T01851019  RH  025%=      5-min Rain = 0
KNH1 300140Z 21007KT 18/M02 A3018 RMK A01 T01841020  RH  025%=      5-min Rain = 0
KNH1 300141Z 21007KT 19/M02 A3018 RMK A01 T01851020  RH  025%=      5-min Rain = 0
KNH1 300142Z 21007KT 19/M02 A3018 RMK A01 T01851021  RH  025%=      5-min Rain = 0
KNH1 300143Z 21007KT 19/M02 A3018 RMK A01 T01861021  RH  024%=      5-min Rain = 0
KNH1 300144Z 21007KT 19/M02 A3018 RMK A01 T01871021  RH  024%=      5-min Rain = 0
KNH1 300145Z 21007KT 19/M02 A3018 RMK A01 T01881022  RH  024%=      5-min Rain = 0
KNH1 300146Z 21007KT 19/M02 A3018 RMK A01 T01881022  RH  024%=      5-min Rain = 0
KNH1 300147Z 21007KT 19/M02 A3018 RMK A01 T01891022  RH  024%=      5-min Rain = 0
KNH1 300148Z 21007KT 19/M02 A3018 RMK A01 T01901022  RH  024%=      5-min Rain = 0
KNH1 300149Z 21007KT 19/M02 A3018 RMK A01 T01901023  RH  023%=      5-min Rain = 0
KNH1 300150Z 21007KT 19/M02 A3018 RMK A01 T01911023  RH  023%=      5-min Rain = 0
KNH1 300151Z 21007KT 19/M02 A3018 RMK A01 T01921023  RH  023%=      5-min Rain = 0
KNH1 300152Z 21008KT 19/M02 A3018 RMK A01 T01911023  RH  023%=      5-min Rain = 0
KNH1 300153Z 21008KT 19/M02 A3018 RMK A01 T01921023  RH  023%=      5-min Rain = 0
KNH1 300154Z 21007KT 19/M02 A3018 RMK A01 T01921023  RH  023%=      5-min Rain = 0
KNH1 300155Z 21008KT 19/M02 A3018 RMK A01 T01921023  RH  023%=      5-min Rain = 0
KNH1 300156Z 21008KT 19/M02 A3018 RMK A01 T01931023  RH  023%=      5-min Rain = 0
KNH1 300157Z 21008KT 19/M02 A3018 RMK A01 T01931023  RH  023%=      5-min Rain = 0
KNH1 300158Z 21008KT 19/M02 A3018 RMK A01 T01931023  RH  023%=      5-min Rain = 0
KNH1 300159Z 21008KT 19/M02 A3018 RMK A01 T01931023  RH  023%=      5-min Rain = 0
KNH1 300200Z 21008KT 19/M02 A3018 RMK A01 T01931023  RH  023%=      5-min Rain = 0
KNH1 300201Z 20007KT 19/M02 A3018 RMK A01 T01931023  RH  023%=      5-min Rain = 0
KNH1 300202Z 20007KT 19/M02 A3018 RMK A01 T01931023  RH  023%=      5-min Rain = 0
KNH1 300203Z 20008KT 19/M02 A3018 RMK A01 T01921023  RH  023%=      5-min Rain = 0
KNH1 300204Z 20008KT 19/M02 A3018 RMK A01 T01911023  RH  023%=      5-min Rain = 0
KNH1 300205Z 20007KT 19/M02 A3018 RMK A01 T01911023  RH  023%=      5-min Rain = 0
KNH1 300206Z 20007KT 19/M02 A3018 RMK A01 T01911023  RH  023%=      5-min Rain = 0
KNH1 300207Z 20007KT 19/M02 A3018 RMK A01 T01911023  RH  023%=      5-min Rain = 0
KNH1 300208Z 20007KT 19/M02 A3018 RMK A01 T01911023  RH  023%=      5-min Rain = 0
KNH1 300209Z 20007KT 19/M02 A3018 RMK A01 T01911023  RH  023%=      5-min Rain = 0
KNH1 300210Z 20007KT 19/M02 A3018 RMK A01 T01911023  RH  023%=      5-min Rain = 0
KNH1 300211Z 21008KT 19/M02 A3018 RMK A01 T01901023  RH  023%=      5-min Rain = 0
KNH1 300212Z 21007KT 19/M02 A3018 RMK A01 T01911023  RH  023%=      5-min Rain = 0
KNH1 300213Z 21007KT 19/M02 A3018 RMK A01 T01911023  RH  023%=      5-min Rain = 0
KNH1 300214Z 21007KT 19/M02 A3018 RMK A01 T01911023  RH  023%=      5-min Rain = 0
KNH1 300215Z 21007KT 19/M02 A3018 RMK A01 T01911024  RH  023%=      5-min Rain = 0
KNH1 300216Z 21007KT 19/M02 A3018 RMK A01 T01911024  RH  023%=      5-min Rain = 0
KNH1 300217Z 21007KT 19/M02 A3018 RMK A01 T01911024  RH  023%=      5-min Rain = 0
KNH1 300218Z 21008KT 19/M02 A3018 RMK A01 T01911023  RH  023%=      5-min Rain = 0
KNH1 300219Z 21007KT 19/M02 A3018 RMK A01 T01901023  RH  023%=      5-min Rain = 0
KNH1 300220Z 21007KT 19/M02 A3018 RMK A01 T01901023  RH  023%=      5-min Rain = 0
KNH1 300221Z 21008KT 19/M02 A3018 RMK A01 T01901023  RH  024%=      5-min Rain = 0
KNH1 300222Z 21008KT 19/M02 A3018 RMK A01 T01901023  RH  023%=      5-min Rain = 0
KNH1 300223Z 21007KT 19/M02 A3018 RMK A01 T01901023  RH  023%=      5-min Rain = 0
KNH1 300224Z 21008KT 19/M02 A3018 RMK A01 T01911024  RH  023%=      5-min Rain = 0
KNH1 300225Z 21008KT 19/M02 A3018 RMK A01 T01911024  RH  023%=      5-min Rain = 0
KNH1 300226Z 21008KT 19/M02 A3018 RMK A01 T01911024  RH  023%=      5-min Rain = 0
KNH1 300227Z 21008KT 19/M03 A3018 RMK A01 T01911025  RH  023%=      5-min Rain = 0
KNH1 300228Z 21008KT 19/M02 A3018 RMK A01 T01911024  RH  023%=      5-min Rain = 0
KNH1 300229Z 21007KT 19/M02 A3018 RMK A01 T01911024  RH  023%=      5-min Rain = 0
KNH1 300230Z 21008KT 19/M02 A3018 RMK A01 T01901024  RH  023%=      5-min Rain = 0
KNH1 300231Z 21008KT 19/M03 A3018 RMK A01 T01901025  RH  023%=      5-min Rain = 0
KNH1 300232Z 21008KT 19/M03 A3018 RMK A01 T01891025  RH  023%=      5-min Rain = 0
KNH1 300233Z 21008KT 19/M02 A3018 RMK A01 T01891024  RH  023%=      5-min Rain = 0
KNH1 300234Z 21008KT 19/M02 A3018 RMK A01 T01891024  RH  024%=      5-min Rain = 0
KNH1 300235Z 21008KT 19/M02 A3018 RMK A01 T01881024  RH  024%=      5-min Rain = 0
KNH1 300236Z 21008KT 19/M02 A3018 RMK A01 T01881024  RH  024%=      5-min Rain = 0
KNH1 300237Z 21008KT 19/M02 A3018 RMK A01 T01871024  RH  024%=      5-min Rain = 0
KNH1 300238Z 21009KT 19/M02 A3018 RMK A01 T01861024  RH  024%=      5-min Rain = 0
KNH1 300239Z 21008KT 19/M02 A3018 RMK A01 T01861024  RH  024%=      5-min Rain = 0
KNH1 300240Z 21009KT 19/M03 A3018 RMK A01 T01851025  RH  024%=      5-min Rain = 0
KNH1 300241Z 21009KT 19/M03 A3018 RMK A01 T01851025  RH  024%=      5-min Rain = 0
KNH1 300242Z 21009KT 19/M03 A3018 RMK A01 T01851025  RH  024%=      5-min Rain = 0
KNH1 300243Z 21009KT 19/M02 A3018 RMK A01 T01851024  RH  024%=      5-min Rain = 0
KNH1 300244Z 21009KT 19/M02 A3018 RMK A01 T01851024  RH  024%=      5-min Rain = 0
KNH1 300245Z 21009KT 18/M03 A3018 RMK A01 T01831025  RH  024%=      5-min Rain = 0
KNH1 300246Z 21009KT 18/M02 A3018 RMK A01 T01831024  RH  024%=      5-min Rain = 0
KNH1 300247Z 21009KT 18/M03 A3018 RMK A01 T01811025  RH  025%=      5-min Rain = 0
KNH1 300248Z 21009KT 18/M02 A3018 RMK A01 T01811024  RH  025%=      5-min Rain = 0
KNH1 300249Z 21009KT 18/M02 A3018 RMK A01 T01801024  RH  025%=      5-min Rain = 0
KNH1 300250Z 21009KT 18/M02 A3018 RMK A01 T01791024  RH  025%=      5-min Rain = 0
KNH1 300251Z 21009KT 18/M02 A3018 RMK A01 T01781024  RH  025%=      5-min Rain = 0
KNH1 300252Z 21009KT 18/M02 A3018 RMK A01 T01781024  RH  025%=      5-min Rain = 0
KNH1 300253Z 21009KT 18/M02 A3018 RMK A01 T01771024  RH  025%=      5-min Rain = 0
KNH1 300254Z 21009KT 18/M02 A3018 RMK A01 T01761024  RH  025%=      5-min Rain = 0
KNH1 300255Z 21009KT 18/M02 A3018 RMK A01 T01761024  RH  026%=      5-min Rain = 0
KNH1 300256Z 21009KT 18/M02 A3018 RMK A01 T01761024  RH  026%=      5-min Rain = 0
KNH1 300257Z 21009KT 18/M02 A3018 RMK A01 T01751023  RH  026%=      5-min Rain = 0
KNH1 300258Z 21009KT 18/M02 A3018 RMK A01 T01751023  RH  026%=      5-min Rain = 0
KNH1 300259Z 21009KT 17/M02 A3018 RMK A01 T01741023  RH  026%=      5-min Rain = 0
KNH1 300300Z 21009KT 17/M02 A3018 RMK A01 T01731024  RH  026%=      5-min Rain = 0
KNH1 300301Z 21008KT 17/M02 A3018 RMK A01 T01731023  RH  026%=      5-min Rain = 0
KNH1 300302Z 21008KT 17/M02 A3018 RMK A01 T01731023  RH  026%=      5-min Rain = 0
KNH1 300303Z 21007KT 17/M02 A3018 RMK A01 T01721023  RH  026%=      5-min Rain = 0
KNH1 300304Z 22007KT 17/M02 A3018 RMK A01 T01711023  RH  026%=      5-min Rain = 0
KNH1 300305Z 22006KT 17/M02 A3018 RMK A01 T01701023  RH  027%=      5-min Rain = 0
KNH1 300306Z 22006KT 17/M02 A3018 RMK A01 T01681023  RH  027%=      5-min Rain = 0
KNH1 300307Z 22005KT 17/M02 A3018 RMK A01 T01671023  RH  027%=      5-min Rain = 0
KNH1 300308Z 22005KT 17/M02 A3018 RMK A01 T01651023  RH  027%=      5-min Rain = 0
KNH1 300309Z 22005KT 16/M02 A3018 RMK A01 T01641023  RH  028%=      5-min Rain = 0
KNH1 300310Z 22005KT 16/M02 A3018 RMK A01 T01631023  RH  028%=      5-min Rain = 0
KNH1 300311Z 22006KT 16/M02 A3018 RMK A01 T01621023  RH  028%=      5-min Rain = 0
KNH1 300312Z 22005KT 16/M02 A3018 RMK A01 T01611022  RH  028%=      5-min Rain = 0
KNH1 300313Z 22005KT 16/M02 A3018 RMK A01 T01601022  RH  029%=      5-min Rain = 0
KNH1 300314Z 22005KT 16/M02 A3018 RMK A01 T01591022  RH  029%=      5-min Rain = 0
KNH1 300315Z 22005KT 16/M02 A3018 RMK A01 T01581022  RH  029%=      5-min Rain = 0
KNH1 300316Z 22006KT 16/M02 A3018 RMK A01 T01581022  RH  029%=      5-min Rain = 0
KNH1 300317Z 23006KT 16/M02 A3018 RMK A01 T01581022  RH  029%=      5-min Rain = 0
KNH1 300318Z 23006KT 16/M02 A3018 RMK A01 T01571022  RH  029%=      5-min Rain = 0
KNH1 300319Z 23006KT 16/M02 A3018 RMK A01 T01571021  RH  029%=      5-min Rain = 0
KNH1 300320Z 23006KT 16/M02 A3018 RMK A01 T01571021  RH  029%=      5-min Rain = 0
KNH1 300321Z 23005KT 16/M02 A3018 RMK A01 T01571021  RH  029%=      5-min Rain = 0
KNH1 300322Z 23005KT 16/M02 A3018 RMK A01 T01571021  RH  029%=      5-min Rain = 0
KNH1 300323Z 23005KT 16/M02 A3018 RMK A01 T01571021  RH  029%=      5-min Rain = 0
KNH1 300324Z 22006KT 16/M02 A3018 RMK A01 T01571021  RH  029%=      5-min Rain = 0
KNH1 300325Z 22006KT 16/M02 A3018 RMK A01 T01561021  RH  030%=      5-min Rain = 0
KNH1 300326Z 22006KT 16/M02 A3018 RMK A01 T01561021  RH  030%=      5-min Rain = 0
KNH1 300327Z 22006KT 16/M02 A3018 RMK A01 T01551021  RH  030%=      5-min Rain = 0
KNH1 300328Z 22006KT 15/M02 A3018 RMK A01 T01541021  RH  030%=      5-min Rain = 0
KNH1 300329Z 22006KT 15/M02 A3018 RMK A01 T01531020  RH  030%=      5-min Rain = 0
KNH1 300330Z 22007KT 15/M02 A3018 RMK A01 T01531020  RH  030%=      5-min Rain = 0
KNH1 300331Z 22007KT 15/M02 A3018 RMK A01 T01531020  RH  030%=      5-min Rain = 0
KNH1 300332Z 22007KT 15/M02 A3018 RMK A01 T01531020  RH  031%=      5-min Rain = 0
KNH1 300333Z 22007KT 15/M02 A3018 RMK A01 T01531020  RH  031%=      5-min Rain = 0
KNH1 300334Z 22007KT 15/M02 A3018 RMK A01 T01521020  RH  031%=      5-min Rain = 0
KNH1 300335Z 22007KT 15/M02 A3018 RMK A01 T01521019  RH  031%=      5-min Rain = 0
KNH1 300336Z 22007KT 15/M02 A3018 RMK A01 T01511019  RH  031%=      5-min Rain = 0
KNH1 300337Z 22006KT 15/M02 A3018 RMK A01 T01501019  RH  031%=      5-min Rain = 0
KNH1 300338Z 22006KT 15/M02 A3018 RMK A01 T01491019  RH  031%=      5-min Rain = 0
KNH1 300339Z 22006KT 15/M02 A3018 RMK A01 T01491019  RH  031%=      5-min Rain = 0
KNH1 300340Z 22006KT 15/M02 A3018 RMK A01 T01481019  RH  032%=      5-min Rain = 0
KNH1 300341Z 22006KT 15/M02 A3018 RMK A01 T01471019  RH  032%=      5-min Rain = 0
KNH1 300342Z 22006KT 15/M02 A3018 RMK A01 T01461019  RH  032%=      5-min Rain = 0
KNH1 300343Z 22006KT 14/M02 A3018 RMK A01 T01441019  RH  032%=      5-min Rain = 0
KNH1 300344Z 22006KT 14/M02 A3018 RMK A01 T01431019  RH  033%=      5-min Rain = 0
KNH1 300345Z 22006KT 14/M02 A3018 RMK A01 T01421019  RH  033%=      5-min Rain = 0
KNH1 300346Z 22006KT 14/M02 A3018 RMK A01 T01421018  RH  033%=      5-min Rain = 0
KNH1 300347Z 22006KT 14/M02 A3018 RMK A01 T01421018  RH  033%=      5-min Rain = 0
KNH1 300348Z 22006KT 14/M02 A3018 RMK A01 T01421018  RH  033%=      5-min Rain = 0
KNH1 300349Z 23006KT 14/M02 A3018 RMK A01 T01411018  RH  033%=      5-min Rain = 0
KNH1 300350Z 23006KT 14/M02 A3018 RMK A01 T01411018  RH  033%=      5-min Rain = 0
KNH1 300351Z 23006KT 14/M02 A3018 RMK A01 T01411018  RH  033%=      5-min Rain = 0
KNH1 300352Z 23006KT 14/M02 A3018 RMK A01 T01411018  RH  033%=      5-min Rain = 0
KNH1 300353Z 23006KT 14/M02 A3018 RMK A01 T01411018  RH  033%=      5-min Rain = 0
KNH1 300354Z 23006KT 14/M02 A3018 RMK A01 T01411018  RH  033%=      5-min Rain = 0
KNH1 300355Z 23006KT 14/M02 A3018 RMK A01 T01411017  RH  033%=      5-min Rain = 0
KNH1 300356Z 23006KT 14/M02 A3018 RMK A01 T01421017  RH  033%=      5-min Rain = 0
KNH1 300357Z 23006KT 14/M02 A3018 RMK A01 T01431017  RH  033%=      5-min Rain = 0
KNH1 300358Z 23006KT 14/M02 A3018 RMK A01 T01421018  RH  033%=      5-min Rain = 0
KNH1 300359Z 24006KT 14/M02 A3018 RMK A01 T01411018  RH  033%=      5-min Rain = 0
KNH1 300400Z 23006KT 14/M02 A3018 RMK A01 T01411018  RH  033%=      5-min Rain = 0
KNH1 300401Z 23006KT 14/M02 A3018 RMK A01 T01411018  RH  033%=      5-min Rain = 0
KNH1 300402Z 23006KT 14/M02 A3018 RMK A01 T01411019  RH  033%=      5-min Rain = 0
KNH1 300403Z 23007KT 14/M02 A3018 RMK A01 T01411019  RH  033%=      5-min Rain = 0
KNH1 300404Z 23007KT 14/M02 A3018 RMK A01 T01421019  RH  033%=      5-min Rain = 0
KNH1 300405Z 23007KT 14/M02 A3018 RMK A01 T01431019  RH  033%=      5-min Rain = 0
KNH1 300406Z 23007KT 14/M02 A3018 RMK A01 T01441019  RH  033%=      5-min Rain = 0
KNH1 300407Z 23007KT 15/M02 A3018 RMK A01 T01451019  RH  032%=      5-min Rain = 0
KNH1 300408Z 23007KT 15/M02 A3018 RMK A01 T01451019  RH  032%=      5-min Rain = 0
KNH1 300409Z 23006KT 15/M02 A3018 RMK A01 T01451019  RH  032%=      5-min Rain = 0
KNH1 300410Z 23006KT 15/M02 A3018 RMK A01 T01451019  RH  032%=      5-min Rain = 0
KNH1 300411Z 23006KT 15/M02 A3018 RMK A01 T01451019  RH  032%=      5-min Rain = 0
KNH1 300412Z 23006KT 15/M02 A3018 RMK A01 T01451019  RH  032%=      5-min Rain = 0
KNH1 300413Z 23006KT 15/M02 A3018 RMK A01 T01451019  RH  032%=      5-min Rain = 0
KNH1 300414Z 23006KT 15/M02 A3018 RMK A01 T01451019  RH  032%=      5-min Rain = 0
KNH1 300415Z 23006KT 15/M02 A3018 RMK A01 T01451019  RH  032%=      5-min Rain = 0
KNH1 300416Z 23006KT 14/M02 A3018 RMK A01 T01441019  RH  032%=      5-min Rain = 0
KNH1 300417Z 23006KT 14/M02 A3018 RMK A01 T01441019  RH  033%=      5-min Rain = 0
KNH1 300418Z 23006KT 14/M02 A3018 RMK A01 T01441019  RH  033%=      5-min Rain = 0
KNH1 300419Z 23006KT 14/M02 A3018 RMK A01 T01441018  RH  033%=      5-min Rain = 0
KNH1 300420Z 23006KT 14/M02 A3018 RMK A01 T01441018  RH  033%=      5-min Rain = 0
KNH1 300421Z 23006KT 14/M02 A3018 RMK A01 T01441019  RH  033%=      5-min Rain = 0
KNH1 300422Z 23006KT 14/M02 A3018 RMK A01 T01431019  RH  033%=      5-min Rain = 0
KNH1 300423Z 23006KT 14/M02 A3018 RMK A01 T01431019  RH  033%=      5-min Rain = 0
KNH1 300424Z 23006KT 14/M02 A3018 RMK A01 T01421019  RH  033%=      5-min Rain = 0
KNH1 300425Z 23006KT 14/M02 A3018 RMK A01 T01421018  RH  033%=      5-min Rain = 0
KNH1 300426Z 23006KT 14/M02 A3018 RMK A01 T01421018  RH  033%=      5-min Rain = 0
KNH1 300427Z 23006KT 14/M02 A3018 RMK A01 T01411019  RH  033%=      5-min Rain = 0
KNH1 300428Z 23006KT 14/M02 A3018 RMK A01 T01411019  RH  033%=      5-min Rain = 0
KNH1 300429Z 23006KT 14/M02 A3018 RMK A01 T01411019  RH  033%=      5-min Rain = 0
KNH1 300430Z 23006KT 14/M02 A3018 RMK A01 T01411019  RH  033%=      5-min Rain = 0
KNH1 300431Z 23005KT 14/M02 A3018 RMK A01 T01411019  RH  033%=      5-min Rain = 0
KNH1 300432Z 23006KT 14/M02 A3018 RMK A01 T01411018  RH  033%=      5-min Rain = 0
KNH1 300433Z 23006KT 14/M02 A3018 RMK A01 T01411019  RH  033%=      5-min Rain = 0
KNH1 300434Z 23006KT 14/M02 A3018 RMK A01 T01401019  RH  033%=      5-min Rain = 0
KNH1 300435Z 23006KT 14/M02 A3017 RMK A01 T01391018  RH  034%=      5-min Rain = 0
KNH1 300436Z 23007KT 14/M02 A3017 RMK A01 T01391019  RH  034%=      5-min Rain = 0
KNH1 300437Z 23007KT 14/M02 A3017 RMK A01 T01401018  RH  033%=      5-min Rain = 0
KNH1 300438Z 23006KT 14/M02 A3017 RMK A01 T01411018  RH  033%=      5-min Rain = 0
KNH1 300439Z 23007KT 14/M02 A3017 RMK A01 T01421018  RH  033%=      5-min Rain = 0
KNH1 300440Z 23006KT 14/M02 A3017 RMK A01 T01431018  RH  033%=      5-min Rain = 0
KNH1 300441Z 23006KT 14/M02 A3017 RMK A01 T01431018  RH  033%=      5-min Rain = 0
KNH1 300442Z 23006KT 14/M02 A3017 RMK A01 T01431018  RH  033%=      5-min Rain = 0
KNH1 300443Z 23006KT 14/M02 A3017 RMK A01 T01421018  RH  033%=      5-min Rain = 0
KNH1 300444Z 23006KT 14/M02 A3017 RMK A01 T01421018  RH  033%=      5-min Rain = 0
KNH1 300445Z 23006KT 14/M02 A3017 RMK A01 T01421018  RH  033%=      5-min Rain = 0
KNH1 300446Z 23006KT 14/M02 A3017 RMK A01 T01421018  RH  033%=      5-min Rain = 0
KNH1 300447Z 23006KT 14/M02 A3017 RMK A01 T01421017  RH  033%=      5-min Rain = 0
KNH1 300448Z 23006KT 14/M02 A3017 RMK A01 T01421017  RH  033%=      5-min Rain = 0
KNH1 300449Z 23007KT 14/M02 A3017 RMK A01 T01411017  RH  033%=      5-min Rain = 0
KNH1 300450Z 23006KT 14/M02 A3017 RMK A01 T01411017  RH  033%=      5-min Rain = 0
KNH1 300451Z 24006KT 14/M02 A3017 RMK A01 T01411017  RH  034%=      5-min Rain = 0
KNH1 300452Z 23006KT 14/M02 A3017 RMK A01 T01411017  RH  034%=      5-min Rain = 0
KNH1 300453Z 23007KT 14/M02 A3017 RMK A01 T01401017  RH  034%=      5-min Rain = 0
KNH1 300454Z 23007KT 14/M02 A3017 RMK A01 T01401017  RH  034%=      5-min Rain = 0
KNH1 300455Z 23007KT 14/M02 A3017 RMK A01 T01401017  RH  034%=      5-min Rain = 0
KNH1 300456Z 23006KT 14/M02 A3017 RMK A01 T01401017  RH  034%=      5-min Rain = 0
KNH1 300457Z 23007KT 14/M02 A3017 RMK A01 T01401017  RH  034%=      5-min Rain = 0
KNH1 300458Z 24006KT 14/M02 A3017 RMK A01 T01401017  RH  034%=      5-min Rain = 0
KNH1 300459Z 23006KT 14/M02 A3017 RMK A01 T01401017  RH  034%=      5-min Rain = 0

Page generated in 0.2689 seconds.